Time,TemperatureF,DewpointF,PressureIn,WindDirection,WindDirectionDegrees,WindSpeedMPH,WindSpeedGustMPH,Humidity,HourlyPrecipIn,Conditions,Clouds,dailyrainin,SolarRadiationWatts/m^2,SoftwareType,DateUTC
2013-04-14 00:00:00,79.2,75.7,29.94,SE,136,2.0,6.0,89,0.00,,FEW,0.06,0.00,VWS V14.01,2013-04-14 04:00:00,
2013-04-14 00:05:00,79.2,75.7,29.94,SE,125,1.0,5.0,89,0.00,,FEW,0.00,0.00,VWS V14.01,2013-04-14 04:05:00,
2013-04-14 00:10:00,79.1,75.9,29.94,SE,130,1.0,5.0,90,0.00,,FEW,0.00,0.00,VWS V14.01,2013-04-14 04:10:00,
2013-04-14 00:15:00,79.1,75.9,29.94,East,89,2.0,3.0,90,0.00,,FEW,0.00,0.00,VWS V14.01,2013-04-14 04:15:00,
2013-04-14 00:20:00,79.0,75.8,29.95,SE,146,3.0,4.0,90,0.00,,FEW,0.00,0.00,VWS V14.01,2013-04-14 04:20:00,
2013-04-14 00:25:00,78.9,75.7,29.95,SE,130,3.0,5.0,90,0.00,,FEW,0.00,0.00,VWS V14.01,2013-04-14 04:25:00,
2013-04-14 00:30:00,78.8,75.6,29.95,SSE,147,3.0,8.0,90,0.00,,FEW,0.00,0.00,VWS V14.01,2013-04-14 04:30:00,
2013-04-14 00:35:00,78.7,75.5,29.94,SE,130,2.0,5.0,90,0.00,,FEW,0.00,0.00,VWS V14.01,2013-04-14 04:35:00,
2013-04-14 00:36:00,78.7,75.5,29.94,SE,130,1.0,5.0,90,0.00,,FEW,0.00,0.00,VWS V14.01,2013-04-14 04:36:00,
2013-04-14 00:40:00,78.7,75.5,29.94,East,98,3.0,7.0,90,0.00,,FEW,0.00,0.00,VWS V14.01,2013-04-14 04:40:00,
2013-04-14 00:41:00,78.7,75.5,29.94,SE,127,1.0,7.0,90,0.00,,FEW,0.00,0.00,VWS V14.01,2013-04-14 04:41:00,
2013-04-14 00:45:00,78.7,75.5,29.94,SE,141,0.0,4.0,90,0.00,,FEW,0.00,0.00,VWS V14.01,2013-04-14 04:45:00,
2013-04-14 00:46:00,78.7,75.5,29.94,SE,140,1.0,4.0,90,0.00,,FEW,0.00,0.00,VWS V14.01,2013-04-14 04:46:00,
2013-04-14 00:50:00,78.8,75.6,29.94,East,92,3.0,5.0,90,0.00,,FEW,0.00,0.00,VWS V14.01,2013-04-14 04:50:00,
2013-04-14 00:51:00,78.8,75.6,29.94,ESE,109,2.0,5.0,90,0.00,,FEW,0.00,0.00,VWS V14.01,2013-04-14 04:51:00,
2013-04-14 00:55:00,78.8,75.6,29.94,ESE,121,2.0,4.0,90,0.00,,FEW,0.00,0.00,VWS V14.01,2013-04-14 04:55:00,
2013-04-14 00:56:00,78.9,76.1,29.94,ESE,117,4.0,5.0,91,0.00,,FEW,0.00,0.00,VWS V14.01,2013-04-14 04:56:00,
2013-04-14 01:00:00,78.9,76.1,29.94,SE,139,3.0,5.0,91,0.00,,FEW,0.00,0.00,VWS V14.01,2013-04-14 05:00:00,
2013-04-14 01:01:00,78.9,76.1,29.94,East,80,6.0,6.0,91,0.00,,FEW,0.00,0.00,VWS V14.01,2013-04-14 05:01:00,
2013-04-14 01:02:00,78.9,76.1,29.94,East,99,2.0,6.0,91,0.00,,FEW,0.00,0.00,VWS V14.01,2013-04-14 05:02:00,
2013-04-14 01:05:00,78.9,76.1,29.94,East,86,6.0,6.0,91,0.00,,FEW,0.00,0.00,VWS V14.01,2013-04-14 05:05:00,
2013-04-14 01:06:00,78.9,76.1,29.94,SSE,150,4.0,6.0,91,0.00,,FEW,0.00,0.00,VWS V14.01,2013-04-14 05:06:00,
2013-04-14 01:07:00,78.9,76.1,29.94,ESE,108,3.0,6.0,91,0.00,,FEW,0.00,0.00,VWS V14.01,2013-04-14 05:07:00,
2013-04-14 01:11:00,78.8,75.9,29.94,ESE,117,5.0,7.0,91,0.00,,FEW,0.00,0.00,VWS V14.01,2013-04-14 05:11:00,
2013-04-14 01:12:00,78.8,75.9,29.94,SE,124,3.0,7.0,91,0.00,,FEW,0.00,0.00,VWS V14.01,2013-04-14 05:12:00,
2013-04-14 01:16:00,78.8,75.9,29.94,ESE,116,0.0,5.0,91,0.00,,FEW,0.00,0.00,VWS V14.01,2013-04-14 05:16:00,
2013-04-14 01:17:00,78.8,75.9,29.94,ESE,114,1.0,5.0,91,0.00,,FEW,0.00,0.00,VWS V14.01,2013-04-14 05:17:00,
2013-04-14 01:21:00,78.8,75.9,29.94,ESE,112,5.0,5.0,91,0.00,,FEW,0.00,0.00,VWS V14.01,2013-04-14 05:21:00,
2013-04-14 01:22:00,78.8,75.9,29.94,SE,129,2.0,5.0,91,0.00,,FEW,0.00,0.00,VWS V14.01,2013-04-14 05:22:00,
2013-04-14 01:23:00,78.8,75.9,29.94,SE,129,1.0,1.0,91,0.00,,FEW,0.00,0.00,VWS V14.01,2013-04-14 05:23:00,
2013-04-14 01:26:00,78.8,75.9,29.94,ESE,104,2.0,5.0,91,0.00,,FEW,0.00,0.00,VWS V14.01,2013-04-14 05:26:00,
2013-04-14 01:27:00,78.8,75.9,29.94,ESE,113,4.0,5.0,91,0.00,,FEW,0.00,0.00,VWS V14.01,2013-04-14 05:27:00,
2013-04-14 01:28:00,78.8,75.9,29.94,East,101,2.0,5.0,91,0.00,,FEW,0.00,0.00,VWS V14.01,2013-04-14 05:28:00,
2013-04-14 01:32:00,78.8,75.9,29.94,SSE,147,3.0,7.0,91,0.00,,FEW,0.00,0.00,VWS V14.01,2013-04-14 05:32:00,
2013-04-14 01:33:00,78.7,75.9,29.94,ESE,112,2.0,5.0,91,0.00,,FEW,0.00,0.00,VWS V14.01,2013-04-14 05:33:00,
2013-04-14 01:37:00,78.8,75.9,29.94,ESE,118,2.0,6.0,91,0.00,,FEW,0.00,0.00,VWS V14.01,2013-04-14 05:37:00,
2013-04-14 01:38:00,78.7,75.9,29.94,ESE,108,3.0,6.0,91,0.00,,FEW,0.00,0.00,VWS V14.01,2013-04-14 05:38:00,
2013-04-14 01:42:00,78.7,75.9,29.94,SE,133,6.0,8.0,91,0.00,,FEW,0.00,0.00,VWS V14.01,2013-04-14 05:42:00,
2013-04-14 01:43:00,78.7,75.9,29.94,SE,130,2.0,6.0,91,0.00,,FEW,0.00,0.00,VWS V14.01,2013-04-14 05:43:00,
2013-04-14 01:48:00,78.6,75.8,29.94,SSE,148,3.0,8.0,91,0.00,,FEW,0.00,0.00,VWS V14.01,2013-04-14 05:48:00,
2013-04-14 01:53:00,78.6,75.8,29.94,SSE,147,2.0,5.0,91,0.00,,FEW,0.00,0.00,VWS V14.01,2013-04-14 05:53:00,
2013-04-14 01:58:00,78.6,75.8,29.94,East,97,7.0,7.0,91,0.00,,FEW,0.00,0.00,VWS V14.01,2013-04-14 05:58:00,
2013-04-14 02:03:00,78.5,75.7,29.94,ESE,103,3.0,6.0,91,0.00,,FEW,0.00,0.00,VWS V14.01,2013-04-14 06:03:00,
2013-04-14 02:08:00,78.5,75.7,29.94,East,94,5.0,7.0,91,0.00,,FEW,0.00,0.00,VWS V14.01,2013-04-14 06:08:00,
2013-04-14 02:13:00,78.4,75.6,29.94,ESE,122,3.0,3.0,91,0.00,,FEW,0.00,0.00,VWS V14.01,2013-04-14 06:13:00,
2013-04-14 02:14:00,78.4,75.6,29.94,SSE,148,5.0,5.0,91,0.00,,FEW,0.00,0.00,VWS V14.01,2013-04-14 06:14:00,
2013-04-14 02:18:00,78.3,75.5,29.93,South,176,6.0,10.0,91,0.00,,FEW,0.00,0.00,VWS V14.01,2013-04-14 06:18:00,
2013-04-14 02:19:00,78.3,75.5,29.93,ESE,113,1.0,10.0,91,0.00,,FEW,0.00,0.00,VWS V14.01,2013-04-14 06:19:00,
2013-04-14 02:23:00,78.2,75.4,29.93,SE,144,4.0,4.0,91,0.00,,FEW,0.00,0.00,VWS V14.01,2013-04-14 06:23:00,
2013-04-14 02:24:00,78.2,75.4,29.93,East,85,6.0,6.0,91,0.00,,FEW,0.00,0.00,VWS V14.01,2013-04-14 06:24:00,
2013-04-14 02:28:00,78.2,75.0,29.93,SSE,156,5.0,7.0,90,0.00,,FEW,0.00,0.00,VWS V14.01,2013-04-14 06:28:00,
2013-04-14 02:29:00,78.2,75.0,29.93,SSE,163,1.0,7.0,90,0.00,,FEW,0.00,0.00,VWS V14.01,2013-04-14 06:29:00,
2013-04-14 02:33:00,78.2,75.0,29.93,SE,128,3.0,4.0,90,0.00,,FEW,0.00,0.00,VWS V14.01,2013-04-14 06:33:00,
2013-04-14 02:34:00,78.2,75.0,29.93,SE,127,4.0,4.0,90,0.00,,FEW,0.00,0.00,VWS V14.01,2013-04-14 06:34:00,
2013-04-14 02:38:00,78.2,75.0,29.93,SE,138,2.0,4.0,90,0.00,,FEW,0.00,0.00,VWS V14.01,2013-04-14 06:38:00,
2013-04-14 02:39:00,78.1,74.9,29.93,SE,130,4.0,5.0,90,0.00,,FEW,0.00,0.00,VWS V14.01,2013-04-14 06:39:00,
2013-04-14 02:43:00,78.2,75.0,29.93,SSE,156,2.0,2.0,90,0.00,,FEW,0.00,0.00,VWS V14.01,2013-04-14 06:43:00,
2013-04-14 02:44:00,78.2,75.0,29.93,SSE,156,0.0,2.0,90,0.00,,FEW,0.00,0.00,VWS V14.01,2013-04-14 06:44:00,
2013-04-14 02:45:00,78.2,75.0,29.93,ESE,119,1.0,2.0,90,0.00,,FEW,0.00,0.00,VWS V14.01,2013-04-14 06:45:00,
2013-04-14 02:48:00,78.2,75.0,29.92,ESE,122,3.0,7.0,90,0.00,,FEW,0.00,0.00,VWS V14.01,2013-04-14 06:48:00,
2013-04-14 02:49:00,78.2,75.0,29.92,SSE,153,1.0,7.0,90,0.00,,FEW,0.00,0.00,VWS V14.01,2013-04-14 06:49:00,
2013-04-14 02:50:00,78.2,75.0,29.92,SE,130,2.0,7.0,90,0.00,,FEW,0.00,0.00,VWS V14.01,2013-04-14 06:50:00,
2013-04-14 02:53:00,78.2,75.0,29.92,SSE,148,3.0,3.0,90,0.00,,FEW,0.00,0.00,VWS V14.01,2013-04-14 06:53:00,
2013-04-14 02:54:00,78.2,75.0,29.92,ESE,114,3.0,3.0,90,0.00,,FEW,0.00,0.00,VWS V14.01,2013-04-14 06:54:00,
2013-04-14 02:55:00,78.2,75.0,29.92,SE,138,2.0,3.0,90,0.00,,FEW,0.00,0.00,VWS V14.01,2013-04-14 06:55:00,
2013-04-14 02:59:00,78.2,75.0,29.92,SE,127,0.0,3.0,90,0.00,,FEW,0.00,0.00,VWS V14.01,2013-04-14 06:59:00,
2013-04-14 03:00:00,78.2,75.0,29.92,SSE,156,2.0,4.0,90,0.00,,FEW,0.00,0.00,VWS V14.01,2013-04-14 07:00:00,
2013-04-14 03:04:00,78.2,74.7,29.92,SSE,159,3.0,5.0,89,0.00,,FEW,0.00,0.00,VWS V14.01,2013-04-14 07:04:00,
2013-04-14 03:05:00,78.2,74.7,29.92,SSE,151,6.0,6.0,89,0.00,,FEW,0.00,0.00,VWS V14.01,2013-04-14 07:05:00,
2013-04-14 03:06:00,78.2,74.7,29.92,SE,130,4.0,7.0,89,0.00,,FEW,0.00,0.00,VWS V14.01,2013-04-14 07:06:00,
2013-04-14 03:09:00,78.2,74.7,29.92,SE,144,5.0,7.0,89,0.00,,FEW,0.00,0.00,VWS V14.01,2013-04-14 07:09:00,
2013-04-14 03:10:00,78.2,74.7,29.92,ESE,113,3.0,7.0,89,0.00,,FEW,0.00,0.00,VWS V14.01,2013-04-14 07:10:00,
2013-04-14 03:11:00,78.2,74.7,29.92,SE,142,4.0,7.0,89,0.00,,FEW,0.00,0.00,VWS V14.01,2013-04-14 07:11:00,
2013-04-14 03:14:00,78.3,74.8,29.92,SE,133,3.0,5.0,89,0.00,,FEW,0.00,0.00,VWS V14.01,2013-04-14 07:14:00,
2013-04-14 03:15:00,78.3,74.8,29.92,ESE,120,4.0,7.0,89,0.00,,FEW,0.00,0.00,VWS V14.01,2013-04-14 07:15:00,
2013-04-14 03:16:00,78.3,74.8,29.92,ESE,114,10.0,10.0,89,0.00,,FEW,0.00,0.00,VWS V14.01,2013-04-14 07:16:00,
2013-04-14 03:19:00,78.4,74.9,29.91,SSE,150,5.0,10.0,89,0.00,,FEW,0.00,0.00,VWS V14.01,2013-04-14 07:19:00,
2013-04-14 03:20:00,78.4,74.9,29.91,SE,140,4.0,10.0,89,0.00,,FEW,0.00,0.00,VWS V14.01,2013-04-14 07:20:00,
2013-04-14 03:21:00,78.4,74.9,29.91,SSE,150,7.0,10.0,89,0.00,,FEW,0.00,0.00,VWS V14.01,2013-04-14 07:21:00,
2013-04-14 03:24:00,78.4,74.9,29.91,SSE,148,5.0,9.0,89,0.00,,FEW,0.00,0.00,VWS V14.01,2013-04-14 07:24:00,
2013-04-14 03:26:00,78.5,75.0,29.91,SE,139,4.0,9.0,89,0.00,,FEW,0.00,0.00,VWS V14.01,2013-04-14 07:26:00,
2013-04-14 03:29:00,78.5,75.0,29.91,SSE,153,7.0,9.0,89,0.00,,FEW,0.00,0.00,VWS V14.01,2013-04-14 07:29:00,
2013-04-14 03:32:00,78.5,75.0,29.91,SE,133,4.0,9.0,89,0.00,,FEW,0.00,0.00,VWS V14.01,2013-04-14 07:32:00,
2013-04-14 03:34:00,78.5,75.0,29.91,SSE,162,5.0,6.0,89,0.00,,FEW,0.00,0.00,VWS V14.01,2013-04-14 07:34:00,
2013-04-14 03:37:00,78.5,75.0,29.91,ESE,117,3.0,8.0,89,0.00,,FEW,0.00,0.00,VWS V14.01,2013-04-14 07:37:00,
2013-04-14 03:39:00,78.5,75.0,29.91,SE,138,5.0,8.0,89,0.00,,FEW,0.00,0.00,VWS V14.01,2013-04-14 07:39:00,
2013-04-14 03:40:00,78.5,75.0,29.91,ESE,108,7.0,8.0,89,0.00,,FEW,0.00,0.00,VWS V14.01,2013-04-14 07:40:00,
2013-04-14 03:42:00,78.4,74.9,29.91,SE,136,3.0,8.0,89,0.00,,FEW,0.00,0.00,VWS V14.01,2013-04-14 07:42:00,
2013-04-14 03:45:00,78.4,74.9,29.91,SE,124,4.0,9.0,89,0.00,,FEW,0.00,0.00,VWS V14.01,2013-04-14 07:45:00,
2013-04-14 03:47:00,78.4,74.9,29.91,SE,137,7.0,9.0,89,0.00,,FEW,0.00,0.00,VWS V14.01,2013-04-14 07:47:00,
2013-04-14 03:50:00,78.4,74.9,29.91,SE,136,1.0,9.0,89,0.00,,FEW,0.00,0.00,VWS V14.01,2013-04-14 07:50:00,
2013-04-14 03:52:00,78.4,74.9,29.91,SSE,148,3.0,4.0,89,0.00,,FEW,0.00,0.00,VWS V14.01,2013-04-14 07:52:00,
2013-04-14 03:53:00,78.4,74.9,29.91,SE,135,3.0,4.0,89,0.00,,FEW,0.00,0.00,VWS V14.01,2013-04-14 07:53:00,
2013-04-14 03:55:00,78.5,75.0,29.91,SE,141,3.0,6.0,89,0.00,,FEW,0.00,0.00,VWS V14.01,2013-04-14 07:55:00,
2013-04-14 03:57:00,78.5,75.0,29.91,ESE,123,3.0,9.0,89,0.00,,FEW,0.00,0.00,VWS V14.01,2013-04-14 07:57:00,
2013-04-14 03:58:00,78.4,74.9,29.91,SSE,151,5.0,9.0,89,0.00,,FEW,0.00,0.00,VWS V14.01,2013-04-14 07:58:00,
2013-04-14 04:00:00,78.5,75.0,29.91,SE,140,2.0,9.0,89,0.00,,FEW,0.00,0.00,VWS V14.01,2013-04-14 08:00:00,
2013-04-14 04:03:00,78.5,75.0,29.91,SE,144,3.0,3.0,89,0.00,,FEW,0.00,0.00,VWS V14.01,2013-04-14 08:03:00,
2013-04-14 04:05:00,78.5,75.0,29.91,SSE,156,8.0,10.0,89,0.00,,FEW,0.00,0.00,VWS V14.01,2013-04-14 08:05:00,
2013-04-14 04:06:00,78.5,75.0,29.91,SE,142,5.0,10.0,89,0.00,,FEW,0.00,0.00,VWS V14.01,2013-04-14 08:06:00,
2013-04-14 04:08:00,78.5,75.0,29.91,SE,124,4.0,10.0,89,0.00,,FEW,0.00,0.00,VWS V14.01,2013-04-14 08:08:00,
2013-04-14 04:10:00,78.5,75.0,29.91,SSE,148,5.0,10.0,89,0.00,,FEW,0.00,0.00,VWS V14.01,2013-04-14 08:10:00,
2013-04-14 04:11:00,78.4,74.9,29.91,ESE,122,3.0,10.0,89,0.00,,FEW,0.00,0.00,VWS V14.01,2013-04-14 08:11:00,
2013-04-14 04:13:00,78.4,74.9,29.91,SE,131,6.0,8.0,89,0.00,,FEW,0.00,0.00,VWS V14.01,2013-04-14 08:13:00,
2013-04-14 04:15:00,78.4,74.9,29.91,ESE,119,7.0,8.0,89,0.00,,FEW,0.00,0.00,VWS V14.01,2013-04-14 08:15:00,
2013-04-14 04:16:00,78.4,74.9,29.91,SE,134,6.0,11.0,89,0.00,,FEW,0.00,0.00,VWS V14.01,2013-04-14 08:16:00,
2013-04-14 04:18:00,78.4,74.9,29.91,SSE,148,5.0,11.0,89,0.00,,FEW,0.00,0.00,VWS V14.01,2013-04-14 08:18:00,
2013-04-14 04:20:00,78.4,74.9,29.91,SE,146,4.0,11.0,89,0.00,,FEW,0.00,0.00,VWS V14.01,2013-04-14 08:20:00,
2013-04-14 04:21:00,78.5,75.0,29.91,SE,129,1.0,11.0,89,0.00,,FEW,0.00,0.00,VWS V14.01,2013-04-14 08:21:00,
2013-04-14 04:23:00,78.5,75.0,29.91,ESE,121,2.0,6.0,89,0.00,,FEW,0.00,0.00,VWS V14.01,2013-04-14 08:23:00,
2013-04-14 04:26:00,78.5,75.0,29.91,SSE,147,5.0,6.0,89,0.00,,FEW,0.00,0.00,VWS V14.01,2013-04-14 08:26:00,
2013-04-14 04:28:00,78.4,74.9,29.91,South,169,5.0,8.0,89,0.00,,FEW,0.00,0.00,VWS V14.01,2013-04-14 08:28:00,
2013-04-14 04:31:00,78.4,74.9,29.91,SE,136,5.0,10.0,89,0.00,,FEW,0.00,0.00,VWS V14.01,2013-04-14 08:31:00,
2013-04-14 04:32:00,78.3,74.8,29.90,SE,136,4.0,10.0,89,0.00,,FEW,0.00,0.00,VWS V14.01,2013-04-14 08:32:00,
2013-04-14 04:33:00,78.3,74.8,29.90,SE,131,6.0,6.0,89,0.00,,FEW,0.00,0.00,VWS V14.01,2013-04-14 08:33:00,
2013-04-14 04:36:00,78.3,74.8,29.90,SE,138,6.0,6.0,89,0.00,,FEW,0.00,0.00,VWS V14.01,2013-04-14 08:36:00,
2013-04-14 04:37:00,78.4,74.9,29.90,ESE,106,2.0,7.0,89,0.00,,FEW,0.00,0.00,VWS V14.01,2013-04-14 08:37:00,
2013-04-14 04:38:00,78.4,74.9,29.90,SSE,147,4.0,7.0,89,0.00,,FEW,0.00,0.00,VWS V14.01,2013-04-14 08:38:00,
2013-04-14 04:39:00,78.4,74.9,29.90,SSE,167,5.0,7.0,89,0.00,,FEW,0.00,0.00,VWS V14.01,2013-04-14 08:39:00,
2013-04-14 04:41:00,78.4,74.9,29.90,SSE,157,5.0,7.0,89,0.00,,FEW,0.00,0.00,VWS V14.01,2013-04-14 08:41:00,
2013-04-14 04:42:00,78.4,74.9,29.90,ESE,112,5.0,7.0,89,0.00,,FEW,0.00,0.00,VWS V14.01,2013-04-14 08:42:00,
2013-04-14 04:44:00,78.4,74.9,29.90,SSE,150,3.0,6.0,89,0.00,,FEW,0.00,0.00,VWS V14.01,2013-04-14 08:44:00,
2013-04-14 04:46:00,78.4,74.9,29.90,South,175,4.0,7.0,89,0.00,,FEW,0.00,0.00,VWS V14.01,2013-04-14 08:46:00,
2013-04-14 04:47:00,78.4,74.9,29.91,ESE,109,8.0,8.0,89,0.00,,FEW,0.00,0.00,VWS V14.01,2013-04-14 08:47:00,
2013-04-14 04:49:00,78.4,74.9,29.91,South,175,6.0,8.0,89,0.00,,FEW,0.00,0.00,VWS V14.01,2013-04-14 08:49:00,
2013-04-14 04:51:00,78.4,74.9,29.91,ESE,119,2.0,8.0,89,0.00,,FEW,0.00,0.00,VWS V14.01,2013-04-14 08:51:00,
2013-04-14 04:52:00,78.4,74.9,29.91,ESE,122,5.0,6.0,89,0.00,,FEW,0.00,0.00,VWS V14.01,2013-04-14 08:52:00,
2013-04-14 04:54:00,78.4,74.9,29.91,SE,146,6.0,6.0,89,0.00,,FEW,0.00,0.00,VWS V14.01,2013-04-14 08:54:00,
2013-04-14 04:56:00,78.4,74.9,29.91,SE,136,3.0,8.0,89,0.00,,FEW,0.00,0.00,VWS V14.01,2013-04-14 08:56:00,
2013-04-14 04:57:00,78.4,74.9,29.91,SE,142,3.0,8.0,89,0.00,,FEW,0.00,0.00,VWS V14.01,2013-04-14 08:57:00,
2013-04-14 04:59:00,78.4,74.9,29.91,SSE,165,6.0,8.0,89,0.00,,FEW,0.00,0.00,VWS V14.01,2013-04-14 08:59:00,
2013-04-14 05:01:00,78.4,74.9,29.91,East,95,8.0,8.0,89,0.00,,FEW,0.00,0.00,VWS V14.01,2013-04-14 09:01:00,
2013-04-14 05:03:00,78.4,74.6,29.91,SE,136,8.0,8.0,88,0.00,,FEW,0.00,0.00,VWS V14.01,2013-04-14 09:03:00,
2013-04-14 05:04:00,78.4,74.9,29.91,SSE,153,7.0,10.0,89,0.00,,FEW,0.00,0.00,VWS V14.01,2013-04-14 09:04:00,
2013-04-14 05:05:00,78.4,74.6,29.91,SE,125,7.0,13.0,88,0.00,,FEW,0.00,0.00,VWS V14.01,2013-04-14 09:05:00,
2013-04-14 05:06:00,78.3,74.5,29.91,SE,132,2.0,13.0,88,0.00,,FEW,0.00,0.00,VWS V14.01,2013-04-14 09:06:00,
2013-04-14 05:08:00,78.3,74.5,29.91,SE,126,6.0,13.0,88,0.00,,FEW,0.00,0.00,VWS V14.01,2013-04-14 09:08:00,
2013-04-14 05:09:00,78.2,74.4,29.91,SE,132,2.0,13.0,88,0.00,,FEW,0.00,0.00,VWS V14.01,2013-04-14 09:09:00,
2013-04-14 05:10:00,78.2,74.4,29.91,SE,130,5.0,13.0,88,0.00,,FEW,0.00,0.00,VWS V14.01,2013-04-14 09:10:00,
2013-04-14 05:11:00,78.2,74.4,29.91,ESE,103,5.0,13.0,88,0.00,,FEW,0.00,0.00,VWS V14.01,2013-04-14 09:11:00,
2013-04-14 05:13:00,78.2,74.4,29.91,SE,141,5.0,8.0,88,0.00,,FEW,0.00,0.00,VWS V14.01,2013-04-14 09:13:00,
2013-04-14 05:14:00,78.3,74.5,29.91,SE,130,5.0,8.0,88,0.00,,FEW,0.00,0.00,VWS V14.01,2013-04-14 09:14:00,
2013-04-14 05:15:00,78.3,74.5,29.91,SE,132,6.0,8.0,88,0.00,,FEW,0.00,0.00,VWS V14.01,2013-04-14 09:15:00,
2013-04-14 05:16:00,78.3,74.5,29.91,SSE,166,2.0,8.0,88,0.00,,FEW,0.00,0.00,VWS V14.01,2013-04-14 09:16:00,
2013-04-14 05:18:00,78.3,74.5,29.91,SE,126,5.0,8.0,88,0.00,,FEW,0.00,0.00,VWS V14.01,2013-04-14 09:18:00,
2013-04-14 05:19:00,78.3,74.5,29.91,SSE,158,4.0,8.0,88,0.00,,FEW,0.00,0.00,VWS V14.01,2013-04-14 09:19:00,
2013-04-14 05:20:00,78.3,74.5,29.91,SE,139,4.0,8.0,88,0.00,,FEW,0.00,0.00,VWS V14.01,2013-04-14 09:20:00,
2013-04-14 05:21:00,78.3,74.5,29.91,ESE,113,2.0,8.0,88,0.00,,FEW,0.00,0.00,VWS V14.01,2013-04-14 09:21:00,
2013-04-14 05:23:00,78.4,74.6,29.91,SSE,162,5.0,5.0,88,0.00,,FEW,0.00,0.00,VWS V14.01,2013-04-14 09:23:00,
2013-04-14 05:24:00,78.4,74.6,29.91,SE,144,2.0,5.0,88,0.00,,FEW,0.00,0.00,VWS V14.01,2013-04-14 09:24:00,
2013-04-14 05:25:00,78.4,74.6,29.91,SE,134,5.0,5.0,88,0.00,,FEW,0.00,0.00,VWS V14.01,2013-04-14 09:25:00,
2013-04-14 05:26:00,78.4,74.6,29.91,SE,139,5.0,8.0,88,0.00,,FEW,0.00,0.00,VWS V14.01,2013-04-14 09:26:00,
2013-04-14 05:29:00,78.4,74.6,29.91,SE,146,3.0,8.0,88,0.00,,FEW,0.00,0.00,VWS V14.01,2013-04-14 09:29:00,
2013-04-14 05:31:00,78.4,74.6,29.91,SE,126,3.0,11.0,88,0.00,,FEW,0.00,0.00,VWS V14.01,2013-04-14 09:31:00,
2013-04-14 05:34:00,78.3,74.5,29.91,East,88,2.0,7.0,88,0.00,,FEW,0.00,0.00,VWS V14.01,2013-04-14 09:34:00,
2013-04-14 05:35:00,78.3,74.5,29.91,ESE,109,5.0,7.0,88,0.00,,FEW,0.00,0.00,VWS V14.01,2013-04-14 09:35:00,
2013-04-14 05:36:00,78.2,74.4,29.91,SE,128,3.0,7.0,88,0.00,,FEW,0.00,0.00,VWS V14.01,2013-04-14 09:36:00,
2013-04-14 05:39:00,78.2,74.0,29.91,SE,129,4.0,7.0,87,0.00,,FEW,0.00,0.00,VWS V14.01,2013-04-14 09:39:00,
2013-04-14 05:40:00,78.2,74.0,29.91,ESE,115,5.0,7.0,87,0.00,,FEW,0.00,0.00,VWS V14.01,2013-04-14 09:40:00,
2013-04-14 05:41:00,78.2,74.0,29.91,SSE,159,6.0,7.0,87,0.00,,FEW,0.00,0.00,VWS V14.01,2013-04-14 09:41:00,
2013-04-14 05:42:00,78.1,73.9,29.91,ESE,104,4.0,7.0,87,0.00,,FEW,0.00,0.00,VWS V14.01,2013-04-14 09:42:00,
2013-04-14 05:44:00,78.2,74.0,29.91,SE,145,6.0,8.0,87,0.00,,FEW,0.00,0.00,VWS V14.01,2013-04-14 09:44:00,
2013-04-14 05:45:00,78.2,74.0,29.91,SE,140,4.0,8.0,87,0.00,,FEW,0.00,0.00,VWS V14.01,2013-04-14 09:45:00,
2013-04-14 05:46:00,78.2,74.0,29.91,SSE,148,4.0,8.0,87,0.00,,FEW,0.00,0.00,VWS V14.01,2013-04-14 09:46:00,
2013-04-14 05:47:00,78.2,74.0,29.91,ESE,121,4.0,8.0,87,0.00,,FEW,0.00,0.00,VWS V14.01,2013-04-14 09:47:00,
2013-04-14 05:49:00,78.2,74.0,29.91,ESE,121,4.0,8.0,87,0.00,,FEW,0.00,0.00,VWS V14.01,2013-04-14 09:49:00,
2013-04-14 05:50:00,78.3,74.1,29.91,SE,124,5.0,8.0,87,0.00,,FEW,0.00,0.00,VWS V14.01,2013-04-14 09:50:00,
2013-04-14 05:52:00,78.3,74.1,29.91,SE,126,5.0,8.0,87,0.00,,FEW,0.00,0.00,VWS V14.01,2013-04-14 09:52:00,
2013-04-14 05:53:00,78.3,74.1,29.91,SE,138,5.0,7.0,87,0.00,,FEW,0.00,0.00,VWS V14.01,2013-04-14 09:53:00,
2013-04-14 05:54:00,78.3,74.1,29.91,SSE,155,3.0,7.0,87,0.00,,FEW,0.00,0.00,VWS V14.01,2013-04-14 09:54:00,
2013-04-14 05:55:00,78.3,74.1,29.91,SE,144,6.0,8.0,87,0.00,,FEW,0.00,0.00,VWS V14.01,2013-04-14 09:55:00,
2013-04-14 05:57:00,78.3,74.1,29.91,SE,136,7.0,9.0,87,0.00,,FEW,0.00,0.00,VWS V14.01,2013-04-14 09:57:00,
2013-04-14 05:58:00,78.3,74.1,29.91,SE,139,3.0,9.0,87,0.00,,FEW,0.00,0.00,VWS V14.01,2013-04-14 09:58:00,
2013-04-14 05:59:00,78.3,74.1,29.91,SE,146,3.0,12.0,87,0.00,,FEW,0.00,0.00,VWS V14.01,2013-04-14 09:59:00,
2013-04-14 06:01:00,78.3,74.1,29.91,SSE,157,3.0,12.0,87,0.00,,FEW,0.00,0.00,VWS V14.01,2013-04-14 10:01:00,
2013-04-14 06:02:00,78.3,74.5,29.91,East,97,6.0,12.0,88,0.00,,FEW,0.00,0.00,VWS V14.01,2013-04-14 10:02:00,
2013-04-14 06:03:00,78.3,74.1,29.91,SE,128,5.0,8.0,87,0.00,,FEW,0.00,0.00,VWS V14.01,2013-04-14 10:03:00,
2013-04-14 06:04:00,78.3,74.1,29.91,SE,124,3.0,8.0,87,0.00,,FEW,0.00,0.00,VWS V14.01,2013-04-14 10:04:00,
2013-04-14 06:06:00,78.3,74.1,29.91,SE,140,4.0,9.0,87,0.00,,FEW,0.00,0.00,VWS V14.01,2013-04-14 10:06:00,
2013-04-14 06:07:00,78.3,74.1,29.91,SE,139,4.0,9.0,87,0.00,,FEW,0.00,0.00,VWS V14.01,2013-04-14 10:07:00,
2013-04-14 06:08:00,78.3,74.1,29.91,SSE,164,5.0,9.0,87,0.00,,FEW,0.00,0.00,VWS V14.01,2013-04-14 10:08:00,
2013-04-14 06:09:00,78.3,74.1,29.91,SE,144,6.0,9.0,87,0.00,,FEW,0.00,0.00,VWS V14.01,2013-04-14 10:09:00,
2013-04-14 06:12:00,78.3,74.1,29.91,SE,144,3.0,9.0,87,0.00,,FEW,0.00,0.00,VWS V14.01,2013-04-14 10:12:00,
2013-04-14 06:13:00,78.3,74.1,29.91,SE,129,4.0,4.0,87,0.00,,FEW,0.00,0.00,VWS V14.01,2013-04-14 10:13:00,
2013-04-14 06:14:00,78.3,74.1,29.91,ESE,107,5.0,8.0,87,0.00,,FEW,0.00,0.00,VWS V14.01,2013-04-14 10:14:00,
2013-04-14 06:17:00,78.4,74.2,29.91,SE,138,4.0,8.0,87,0.00,,FEW,0.00,0.00,VWS V14.01,2013-04-14 10:17:00,
2013-04-14 06:18:00,78.4,74.2,29.91,SE,145,6.0,8.0,87,0.00,,FEW,0.00,0.00,VWS V14.01,2013-04-14 10:18:00,
2013-04-14 06:19:00,78.4,74.6,29.91,SE,133,5.0,10.0,88,0.00,,FEW,0.00,0.00,VWS V14.01,2013-04-14 10:19:00,
2013-04-14 06:22:00,78.4,74.6,29.91,ESE,119,2.0,5.0,88,0.00,,FEW,0.00,0.00,VWS V14.01,2013-04-14 10:22:00,
2013-04-14 06:23:00,78.4,74.6,29.91,ESE,119,4.0,5.0,88,0.00,,FEW,0.00,0.00,VWS V14.01,2013-04-14 10:23:00,
2013-04-14 06:25:00,78.4,74.6,29.91,SE,140,1.0,9.0,88,0.00,,FEW,0.00,0.00,VWS V14.01,2013-04-14 10:25:00,
2013-04-14 06:27:00,78.4,74.6,29.91,SSE,155,5.0,9.0,88,0.00,,FEW,0.00,0.00,VWS V14.01,2013-04-14 10:27:00,
2013-04-14 06:28:00,78.4,74.6,29.91,SE,125,6.0,9.0,88,0.00,,FEW,0.00,0.00,VWS V14.01,2013-04-14 10:28:00,
2013-04-14 06:30:00,78.4,74.6,29.91,SE,130,4.0,9.0,88,0.00,,FEW,0.00,0.00,VWS V14.01,2013-04-14 10:30:00,
2013-04-14 06:33:00,78.4,74.6,29.91,SE,136,5.0,7.0,88,0.00,,FEW,0.00,0.00,VWS V14.01,2013-04-14 10:33:00,
2013-04-14 06:35:00,78.4,74.6,29.91,SE,143,6.0,8.0,88,0.00,,FEW,0.00,0.00,VWS V14.01,2013-04-14 10:35:00,
2013-04-14 06:38:00,78.4,74.6,29.91,SE,130,3.0,9.0,88,0.00,,FEW,0.00,0.00,VWS V14.01,2013-04-14 10:38:00,
2013-04-14 06:40:00,78.4,74.6,29.91,SE,133,4.0,9.0,88,0.00,,FEW,0.00,0.00,VWS V14.01,2013-04-14 10:40:00,
2013-04-14 06:43:00,78.4,74.6,29.91,ESE,106,7.0,11.0,88,0.00,,FEW,0.00,0.00,VWS V14.01,2013-04-14 10:43:00,
2013-04-14 06:45:00,78.4,74.6,29.91,ESE,115,5.0,11.0,88,0.00,,FEW,0.00,0.00,VWS V14.01,2013-04-14 10:45:00,
2013-04-14 06:48:00,78.4,74.6,29.91,SE,134,4.0,11.0,88,0.00,,FEW,0.00,0.00,VWS V14.01,2013-04-14 10:48:00,
2013-04-14 06:49:00,78.4,74.6,29.91,SSE,157,6.0,11.0,88,0.00,,FEW,0.00,0.00,VWS V14.01,2013-04-14 10:49:00,
2013-04-14 06:50:00,78.4,74.6,29.91,ESE,120,10.0,11.0,88,0.00,,FEW,0.00,0.00,VWS V14.01,2013-04-14 10:50:00,
2013-04-14 06:53:00,78.3,74.5,29.91,SE,130,5.0,9.0,88,0.00,,FEW,0.00,0.00,VWS V14.01,2013-04-14 10:53:00,
2013-04-14 06:54:00,78.3,74.5,29.91,ESE,115,5.0,9.0,88,0.00,,FEW,0.00,0.00,VWS V14.01,2013-04-14 10:54:00,
2013-04-14 06:55:00,78.3,74.5,29.91,SE,131,4.0,9.0,88,0.00,,FEW,0.00,0.00,VWS V14.01,2013-04-14 10:55:00,
2013-04-14 06:58:00,78.3,74.5,29.91,SSE,161,7.0,9.0,88,0.00,,FEW,0.00,0.00,VWS V14.01,2013-04-14 10:58:00,
2013-04-14 06:59:00,78.3,74.5,29.91,SE,144,4.0,9.0,88,0.00,,FEW,0.00,0.00,VWS V14.01,2013-04-14 10:59:00,
2013-04-14 07:00:00,78.3,74.5,29.91,SE,135,4.0,9.0,88,0.00,,FEW,0.00,0.00,VWS V14.01,2013-04-14 11:00:00,
2013-04-14 07:03:00,78.3,74.5,29.91,South,182,4.0,10.0,88,0.00,,FEW,0.00,0.00,VWS V14.01,2013-04-14 11:03:00,
2013-04-14 07:04:00,78.3,74.5,29.91,SE,136,6.0,10.0,88,0.00,,FEW,0.00,0.00,VWS V14.01,2013-04-14 11:04:00,
2013-04-14 07:06:00,78.3,74.5,29.91,SSE,148,10.0,11.0,88,0.00,,FEW,0.00,5.00,VWS V14.01,2013-04-14 11:06:00,
2013-04-14 07:08:00,78.3,74.1,29.91,SE,144,8.0,12.0,87,0.00,,FEW,0.00,7.00,VWS V14.01,2013-04-14 11:08:00,
2013-04-14 07:09:00,78.3,74.1,29.91,SSE,150,3.0,12.0,87,0.00,,FEW,0.00,7.00,VWS V14.01,2013-04-14 11:09:00,
2013-04-14 07:11:00,78.3,74.1,29.91,SE,126,4.0,12.0,87,0.00,,FEW,0.00,9.00,VWS V14.01,2013-04-14 11:11:00,
2013-04-14 07:14:00,78.4,74.2,29.91,SE,131,8.0,8.0,87,0.00,,FEW,0.00,11.00,VWS V14.01,2013-04-14 11:14:00,
2013-04-14 07:16:00,78.4,74.2,29.91,SSE,147,9.0,12.0,87,0.00,,FEW,0.00,12.00,VWS V14.01,2013-04-14 11:16:00,
2013-04-14 07:19:00,78.4,74.2,29.91,SE,144,9.0,12.0,87,0.00,,FEW,0.00,14.00,VWS V14.01,2013-04-14 11:19:00,
2013-04-14 07:21:00,78.5,74.3,29.91,SSE,157,4.0,12.0,87,0.00,,FEW,0.00,16.00,VWS V14.01,2013-04-14 11:21:00,
2013-04-14 07:24:00,78.5,74.3,29.91,SE,139,6.0,8.0,87,0.00,,FEW,0.00,18.00,VWS V14.01,2013-04-14 11:24:00,
2013-04-14 07:26:00,78.6,74.4,29.91,SE,129,6.0,9.0,87,0.00,,FEW,0.00,21.00,VWS V14.01,2013-04-14 11:26:00,
2013-04-14 07:29:00,78.6,74.4,29.91,SE,139,4.0,11.0,87,0.00,,FEW,0.00,21.00,VWS V14.01,2013-04-14 11:29:00,
2013-04-14 07:31:00,78.6,74.4,29.91,SE,125,7.0,11.0,87,0.00,,FEW,0.00,23.00,VWS V14.01,2013-04-14 11:31:00,
2013-04-14 07:34:00,78.6,74.4,29.91,ESE,113,8.0,10.0,87,0.00,,FEW,0.00,26.00,VWS V14.01,2013-04-14 11:34:00,
2013-04-14 07:35:00,78.6,74.4,29.91,ESE,119,4.0,10.0,87,0.00,,FEW,0.00,26.00,VWS V14.01,2013-04-14 11:35:00,
2013-04-14 07:36:00,78.6,74.4,29.91,SE,128,4.0,10.0,87,0.00,,FEW,0.00,32.00,VWS V14.01,2013-04-14 11:36:00,
2013-04-14 07:39:00,78.7,74.5,29.91,SE,144,4.0,10.0,87,0.00,,FEW,0.00,32.00,VWS V14.01,2013-04-14 11:39:00,
2013-04-14 07:40:00,78.7,74.5,29.91,SSE,148,7.0,10.0,87,0.00,,FEW,0.00,32.00,VWS V14.01,2013-04-14 11:40:00,
2013-04-14 07:42:00,78.7,74.5,29.91,SE,136,6.0,10.0,87,0.00,,FEW,0.00,32.00,VWS V14.01,2013-04-14 11:42:00,
2013-04-14 07:44:00,78.8,74.6,29.91,SE,141,4.0,7.0,87,0.00,,FEW,0.00,40.00,VWS V14.01,2013-04-14 11:44:00,
2013-04-14 07:45:00,78.8,74.6,29.91,ESE,105,9.0,9.0,87,0.00,,FEW,0.00,44.00,VWS V14.01,2013-04-14 11:45:00,
2013-04-14 07:47:00,78.8,74.6,29.92,SE,137,5.0,9.0,87,0.00,,FEW,0.00,35.00,VWS V14.01,2013-04-14 11:47:00,
2013-04-14 07:49:00,78.8,74.6,29.92,ESE,103,4.0,9.0,87,0.00,,FEW,0.00,42.00,VWS V14.01,2013-04-14 11:49:00,
2013-04-14 07:50:00,78.8,74.6,29.92,SSE,150,4.0,9.0,87,0.00,,FEW,0.00,47.00,VWS V14.01,2013-04-14 11:50:00,
2013-04-14 07:52:00,78.9,74.7,29.92,SSE,151,4.0,9.0,87,0.00,,FEW,0.00,39.00,VWS V14.01,2013-04-14 11:52:00,
2013-04-14 07:54:00,78.9,74.7,29.92,SSE,148,7.0,8.0,87,0.00,,FEW,0.00,39.00,VWS V14.01,2013-04-14 11:54:00,
2013-04-14 07:55:00,78.9,74.7,29.92,SE,139,5.0,8.0,87,0.00,,FEW,0.00,39.00,VWS V14.01,2013-04-14 11:55:00,
2013-04-14 07:57:00,79.0,74.8,29.92,SSE,159,7.0,8.0,87,0.00,,FEW,0.00,40.00,VWS V14.01,2013-04-14 11:57:00,
2013-04-14 07:59:00,79.0,74.8,29.92,SE,134,3.0,10.0,87,0.00,,FEW,0.00,42.00,VWS V14.01,2013-04-14 11:59:00,
2013-04-14 08:00:00,79.0,74.8,29.92,SSE,149,5.0,10.0,87,0.00,,FEW,0.00,42.00,VWS V14.01,2013-04-14 12:00:00,
2013-04-14 08:02:00,79.0,74.8,29.92,SSE,149,8.0,10.0,87,0.00,,FEW,0.00,44.00,VWS V14.01,2013-04-14 12:02:00,
2013-04-14 08:04:00,79.0,74.5,29.92,ESE,123,5.0,9.0,86,0.00,,FEW,0.00,102.00,VWS V14.01,2013-04-14 12:04:00,
2013-04-14 08:05:00,79.0,74.5,29.92,SE,130,5.0,9.0,86,0.00,,FEW,0.00,91.00,VWS V14.01,2013-04-14 12:05:00,
2013-04-14 08:07:00,79.1,74.9,29.92,SE,126,7.0,9.0,87,0.00,,FEW,0.00,142.00,VWS V14.01,2013-04-14 12:07:00,
2013-04-14 08:09:00,79.1,74.9,29.92,SSE,166,7.0,9.0,87,0.00,,FEW,0.00,139.00,VWS V14.01,2013-04-14 12:09:00,
2013-04-14 08:10:00,79.1,74.9,29.92,SE,144,9.0,9.0,87,0.00,,FEW,0.00,139.00,VWS V14.01,2013-04-14 12:10:00,
2013-04-14 08:12:00,79.2,75.0,29.92,ESE,122,5.0,9.0,87,0.00,,FEW,0.00,125.00,VWS V14.01,2013-04-14 12:12:00,
2013-04-14 08:14:00,79.3,74.8,29.92,SE,144,2.0,7.0,86,0.00,,FEW,0.00,95.00,VWS V14.01,2013-04-14 12:14:00,
2013-04-14 08:15:00,79.3,74.8,29.92,SE,131,5.0,7.0,86,0.00,,FEW,0.00,95.00,VWS V14.01,2013-04-14 12:15:00,
2013-04-14 08:17:00,79.3,74.8,29.93,SE,142,7.0,9.0,86,0.00,,FEW,0.00,63.00,VWS V14.01,2013-04-14 12:17:00,
2013-04-14 08:20:00,79.3,74.8,29.93,SE,134,6.0,9.0,86,0.00,,FEW,0.00,56.00,VWS V14.01,2013-04-14 12:20:00,
2013-04-14 08:22:00,79.4,74.8,29.93,SSE,153,4.0,9.0,86,0.00,,FEW,0.00,56.00,VWS V14.01,2013-04-14 12:22:00,
2013-04-14 08:25:00,79.5,74.9,29.93,SE,140,4.0,9.0,86,0.00,,FEW,0.00,56.00,VWS V14.01,2013-04-14 12:25:00,
2013-04-14 08:27:00,79.6,75.1,29.93,ESE,113,2.0,9.0,86,0.00,,FEW,0.00,69.00,VWS V14.01,2013-04-14 12:27:00,
2013-04-14 08:30:00,79.6,75.1,29.93,SE,130,6.0,9.0,86,0.00,,FEW,0.00,76.00,VWS V14.01,2013-04-14 12:30:00,
2013-04-14 08:31:00,79.7,75.2,29.93,ENE,59,4.0,9.0,86,0.00,,FEW,0.00,83.00,VWS V14.01,2013-04-14 12:31:00,
2013-04-14 08:32:00,79.7,75.2,29.93,SE,146,8.0,8.0,86,0.00,,FEW,0.00,125.00,VWS V14.01,2013-04-14 12:32:00,
2013-04-14 08:35:00,79.7,75.2,29.93,SE,133,4.0,8.0,86,0.00,,FEW,0.00,195.00,VWS V14.01,2013-04-14 12:35:00,
2013-04-14 08:37:00,79.8,75.2,29.93,ESE,110,5.0,8.0,86,0.00,,FEW,0.00,188.00,VWS V14.01,2013-04-14 12:37:00,
2013-04-14 08:40:00,79.9,75.3,29.93,SSE,151,6.0,9.0,86,0.00,,FEW,0.00,139.00,VWS V14.01,2013-04-14 12:40:00,
2013-04-14 08:42:00,79.9,75.3,29.93,SE,126,3.0,9.0,86,0.00,,FEW,0.00,244.00,VWS V14.01,2013-04-14 12:42:00,
2013-04-14 08:43:00,79.9,75.3,29.93,SSE,154,7.0,9.0,86,0.00,,FEW,0.00,199.00,VWS V14.01,2013-04-14 12:43:00,
2013-04-14 08:45:00,80.0,75.4,29.93,SSE,158,6.0,10.0,86,0.00,,FEW,0.00,221.00,VWS V14.01,2013-04-14 12:45:00,
2013-04-14 08:47:00,80.0,75.1,29.93,SE,146,7.0,10.0,85,0.00,,FEW,0.00,151.00,VWS V14.01,2013-04-14 12:47:00,
2013-04-14 08:48:00,80.0,75.1,29.93,SSE,154,4.0,11.0,85,0.00,,FEW,0.00,151.00,VWS V14.01,2013-04-14 12:48:00,
2013-04-14 08:50:00,80.0,75.4,29.93,SSE,157,4.0,11.0,86,0.00,,FEW,0.00,311.00,VWS V14.01,2013-04-14 12:50:00,
2013-04-14 08:52:00,80.1,75.5,29.93,SE,145,6.0,11.0,86,0.00,,FEW,0.00,348.00,VWS V14.01,2013-04-14 12:52:00,
2013-04-14 08:53:00,80.2,75.6,29.93,SSE,150,4.0,6.0,86,0.00,,FEW,0.00,396.00,VWS V14.01,2013-04-14 12:53:00,
2013-04-14 08:55:00,80.3,75.7,29.93,SE,142,5.0,14.0,86,0.00,,FEW,0.00,399.00,VWS V14.01,2013-04-14 12:55:00,
2013-04-14 08:57:00,80.4,75.5,29.93,ESE,118,4.0,14.0,85,0.00,,FEW,0.00,385.00,VWS V14.01,2013-04-14 12:57:00,
2013-04-14 08:58:00,80.5,75.6,29.93,ESE,117,8.0,14.0,85,0.00,,FEW,0.00,385.00,VWS V14.01,2013-04-14 12:58:00,
2013-04-14 09:00:00,80.6,75.7,29.93,SSE,160,4.0,14.0,85,0.00,,FEW,0.00,202.00,VWS V14.01,2013-04-14 13:00:00,
2013-04-14 09:02:00,80.6,75.7,29.93,SE,142,3.0,14.0,85,0.00,,FEW,0.00,127.00,VWS V14.01,2013-04-14 13:02:00,
2013-04-14 09:03:00,80.6,75.7,29.93,SSE,151,6.0,8.0,85,0.00,,FEW,0.00,127.00,VWS V14.01,2013-04-14 13:03:00,
2013-04-14 09:05:00,80.6,75.7,29.93,SE,130,8.0,10.0,85,0.00,,FEW,0.00,179.00,VWS V14.01,2013-04-14 13:05:00,
2013-04-14 09:07:00,80.5,75.2,29.93,SE,130,6.0,10.0,84,0.00,,FEW,0.00,264.00,VWS V14.01,2013-04-14 13:07:00,
2013-04-14 09:08:00,80.4,75.1,29.93,ESE,111,3.0,10.0,84,0.00,,FEW,0.00,181.00,VWS V14.01,2013-04-14 13:08:00,
2013-04-14 09:10:00,80.5,75.6,29.93,SE,138,11.0,11.0,85,0.00,,FEW,0.00,378.00,VWS V14.01,2013-04-14 13:10:00,
2013-04-14 09:11:00,80.5,75.6,29.93,SE,143,6.0,11.0,85,0.00,,FEW,0.00,378.00,VWS V14.01,2013-04-14 13:11:00,
2013-04-14 09:12:00,80.5,75.6,29.93,SSE,159,8.0,11.0,85,0.00,,FEW,0.00,387.00,VWS V14.01,2013-04-14 13:12:00,
2013-04-14 09:13:00,80.6,75.7,29.93,ESE,123,5.0,9.0,85,0.00,,FEW,0.00,390.00,VWS V14.01,2013-04-14 13:13:00,
2013-04-14 09:16:00,80.7,75.8,29.93,SSE,155,8.0,12.0,85,0.00,,FEW,0.00,385.00,VWS V14.01,2013-04-14 13:16:00,
2013-04-14 09:17:00,80.7,75.8,29.94,SSE,149,6.0,12.0,85,0.00,,FEW,0.00,399.00,VWS V14.01,2013-04-14 13:17:00,
2013-04-14 09:19:00,80.8,75.5,29.94,SE,146,5.0,12.0,84,0.00,,FEW,0.00,408.00,VWS V14.01,2013-04-14 13:19:00,
2013-04-14 09:21:00,80.8,75.5,29.94,SE,142,4.0,12.0,84,0.00,,FEW,0.00,413.00,VWS V14.01,2013-04-14 13:21:00,
2013-04-14 09:22:00,80.9,75.6,29.94,SE,138,5.0,12.0,84,0.00,,FEW,0.00,417.00,VWS V14.01,2013-04-14 13:22:00,
2013-04-14 09:24:00,80.9,75.6,29.94,SE,135,7.0,11.0,84,0.00,,FEW,0.00,422.00,VWS V14.01,2013-04-14 13:24:00,
2013-04-14 09:26:00,81.0,75.7,29.94,ESE,112,5.0,11.0,84,0.00,,FEW,0.00,432.00,VWS V14.01,2013-04-14 13:26:00,
2013-04-14 09:27:00,81.0,75.7,29.94,SE,130,12.0,12.0,84,0.00,,FEW,0.00,439.00,VWS V14.01,2013-04-14 13:27:00,
2013-04-14 09:29:00,81.1,75.4,29.94,ESE,123,5.0,12.0,83,0.00,,FEW,0.00,448.00,VWS V14.01,2013-04-14 13:29:00,
2013-04-14 09:31:00,81.1,75.4,29.94,SSE,153,6.0,12.0,83,0.00,,FEW,0.00,452.00,VWS V14.01,2013-04-14 13:31:00,
2013-04-14 09:32:00,81.2,75.6,29.94,SSE,152,4.0,12.0,83,0.00,,FEW,0.00,459.00,VWS V14.01,2013-04-14 13:32:00,
2013-04-14 09:34:00,81.3,75.7,29.94,SE,135,7.0,9.0,83,0.00,,FEW,0.00,466.00,VWS V14.01,2013-04-14 13:34:00,
2013-04-14 09:36:00,81.4,75.4,29.94,SSE,147,11.0,11.0,82,0.00,,FEW,0.00,473.00,VWS V14.01,2013-04-14 13:36:00,
2013-04-14 09:37:00,81.4,75.4,29.94,SSE,159,5.0,11.0,82,0.00,,FEW,0.00,476.00,VWS V14.01,2013-04-14 13:37:00,
2013-04-14 09:39:00,81.6,75.6,29.94,SSE,148,5.0,11.0,82,0.00,,FEW,0.00,476.00,VWS V14.01,2013-04-14 13:39:00,
2013-04-14 09:41:00,81.7,75.7,29.94,SE,126,10.0,11.0,82,0.00,,FEW,0.00,496.00,VWS V14.01,2013-04-14 13:41:00,
2013-04-14 09:42:00,81.8,75.4,29.94,ESE,123,7.0,11.0,81,0.00,,FEW,0.00,496.00,VWS V14.01,2013-04-14 13:42:00,
2013-04-14 09:44:00,81.8,75.4,29.94,SSE,160,6.0,11.0,81,0.00,,FEW,0.00,489.00,VWS V14.01,2013-04-14 13:44:00,
2013-04-14 09:47:00,82.0,76.0,29.94,SSE,147,9.0,11.0,82,0.00,,FEW,0.00,504.00,VWS V14.01,2013-04-14 13:47:00,
2013-04-14 09:49:00,82.1,75.7,29.94,SSE,147,6.0,11.0,81,0.00,,FEW,0.00,513.00,VWS V14.01,2013-04-14 13:49:00,
2013-04-14 09:52:00,82.2,75.8,29.94,SE,126,4.0,11.0,81,0.00,,FEW,0.00,524.00,VWS V14.01,2013-04-14 13:52:00,
2013-04-14 09:54:00,82.4,76.0,29.94,SSE,149,6.0,8.0,81,0.00,,FEW,0.00,533.00,VWS V14.01,2013-04-14 13:54:00,
2013-04-14 09:57:00,82.5,76.1,29.94,ESE,111,5.0,10.0,81,0.00,,FEW,0.00,538.00,VWS V14.01,2013-04-14 13:57:00,
2013-04-14 09:58:00,82.5,76.1,29.94,SE,131,5.0,10.0,81,0.00,,FEW,0.00,543.00,VWS V14.01,2013-04-14 13:58:00,
2013-04-14 09:59:00,82.6,76.2,29.94,SSE,157,4.0,10.0,81,0.00,,FEW,0.00,552.00,VWS V14.01,2013-04-14 13:59:00,
2013-04-14 10:02:00,82.6,75.8,29.94,ESE,117,8.0,10.0,80,0.00,,FEW,0.00,561.00,VWS V14.01,2013-04-14 14:02:00,
2013-04-14 10:03:00,82.6,75.4,29.94,SE,141,8.0,9.0,79,0.00,,FEW,0.00,564.00,VWS V14.01,2013-04-14 14:03:00,
2013-04-14 10:04:00,82.6,75.4,29.94,SE,130,4.0,10.0,79,0.00,,FEW,0.00,570.00,VWS V14.01,2013-04-14 14:04:00,
2013-04-14 10:07:00,82.8,75.6,29.94,SE,146,11.0,11.0,79,0.00,,FEW,0.00,577.00,VWS V14.01,2013-04-14 14:07:00,
2013-04-14 10:08:00,82.8,75.6,29.94,SSE,159,8.0,11.0,79,0.00,,FEW,0.00,580.00,VWS V14.01,2013-04-14 14:08:00,
2013-04-14 10:10:00,82.8,75.6,29.94,SE,129,6.0,11.0,79,0.00,,FEW,0.00,587.00,VWS V14.01,2013-04-14 14:10:00,
2013-04-14 10:12:00,82.8,75.6,29.94,SE,144,5.0,11.0,79,0.00,,FEW,0.00,594.00,VWS V14.01,2013-04-14 14:12:00,
2013-04-14 10:13:00,82.9,75.7,29.94,SE,140,3.0,5.0,79,0.00,,FEW,0.00,596.00,VWS V14.01,2013-04-14 14:13:00,
2013-04-14 10:14:00,82.9,75.7,29.94,SE,136,4.0,8.0,79,0.00,,FEW,0.00,598.00,VWS V14.01,2013-04-14 14:14:00,
2013-04-14 10:15:00,83.0,76.2,29.94,SE,140,5.0,9.0,80,0.00,,FEW,0.00,601.00,VWS V14.01,2013-04-14 14:15:00,
2013-04-14 10:17:00,83.0,75.4,29.94,SE,133,6.0,12.0,78,0.00,,FEW,0.00,610.00,VWS V14.01,2013-04-14 14:17:00,
2013-04-14 10:18:00,83.1,75.5,29.94,ESE,115,10.0,12.0,78,0.00,,FEW,0.00,615.00,VWS V14.01,2013-04-14 14:18:00,
2013-04-14 10:19:00,83.1,75.9,29.94,SE,142,9.0,12.0,79,0.00,,FEW,0.00,617.00,VWS V14.01,2013-04-14 14:19:00,
2013-04-14 10:20:00,83.1,75.5,29.94,SE,134,11.0,12.0,78,0.00,,FEW,0.00,621.00,VWS V14.01,2013-04-14 14:20:00,
2013-04-14 10:22:00,83.2,75.6,29.94,SSE,153,4.0,12.0,78,0.00,,FEW,0.00,626.00,VWS V14.01,2013-04-14 14:22:00,
2013-04-14 10:23:00,83.2,76.0,29.94,SSE,148,5.0,6.0,79,0.00,,FEW,0.00,629.00,VWS V14.01,2013-04-14 14:23:00,
2013-04-14 10:24:00,83.3,76.1,29.94,ESE,123,11.0,11.0,79,0.00,,FEW,0.00,633.00,VWS V14.01,2013-04-14 14:24:00,
2013-04-14 10:25:00,83.3,75.7,29.94,SE,129,7.0,11.0,78,0.00,,FEW,0.00,636.00,VWS V14.01,2013-04-14 14:25:00,
2013-04-14 10:27:00,83.3,75.7,29.94,SE,140,5.0,11.0,78,0.00,,FEW,0.00,640.00,VWS V14.01,2013-04-14 14:27:00,
2013-04-14 10:28:00,83.3,75.7,29.94,ESE,122,5.0,11.0,78,0.00,,FEW,0.00,645.00,VWS V14.01,2013-04-14 14:28:00,
2013-04-14 10:29:00,83.3,75.7,29.94,SE,126,6.0,11.0,78,0.00,,FEW,0.00,645.00,VWS V14.01,2013-04-14 14:29:00,
2013-04-14 10:30:00,83.4,75.8,29.94,SSE,160,5.0,11.0,78,0.00,,FEW,0.00,650.00,VWS V14.01,2013-04-14 14:30:00,
2013-04-14 10:32:00,83.5,75.9,29.94,SSE,149,5.0,7.0,78,0.00,,FEW,0.00,659.00,VWS V14.01,2013-04-14 14:32:00,
2013-04-14 10:34:00,83.6,76.0,29.94,East,100,2.0,8.0,78,0.00,,FEW,0.00,661.00,VWS V14.01,2013-04-14 14:34:00,
2013-04-14 10:35:00,83.7,75.7,29.94,SE,126,4.0,8.0,77,0.00,,FEW,0.00,668.00,VWS V14.01,2013-04-14 14:35:00,
2013-04-14 10:37:00,83.8,75.8,29.94,SE,145,7.0,9.0,77,0.00,,FEW,0.00,675.00,VWS V14.01,2013-04-14 14:37:00,
2013-04-14 10:39:00,83.8,75.8,29.94,South,169,8.0,9.0,77,0.00,,FEW,0.00,677.00,VWS V14.01,2013-04-14 14:39:00,
2013-04-14 10:40:00,83.7,75.7,29.94,SE,135,8.0,12.0,77,0.00,,FEW,0.00,682.00,VWS V14.01,2013-04-14 14:40:00,
2013-04-14 10:43:00,83.6,76.0,29.94,ESE,115,3.0,10.0,78,0.00,,FEW,0.00,691.00,VWS V14.01,2013-04-14 14:43:00,
2013-04-14 10:44:00,83.6,76.0,29.94,SE,146,7.0,10.0,78,0.00,,FEW,0.00,694.00,VWS V14.01,2013-04-14 14:44:00,
2013-04-14 10:45:00,83.7,75.7,29.94,SSE,153,7.0,11.0,77,0.00,,FEW,0.00,696.00,VWS V14.01,2013-04-14 14:45:00,
2013-04-14 10:48:00,83.7,76.1,29.94,SE,141,7.0,11.0,78,0.00,,FEW,0.00,705.00,VWS V14.01,2013-04-14 14:48:00,
2013-04-14 10:49:00,83.7,76.1,29.94,SE,126,9.0,11.0,78,0.00,,FEW,0.00,705.00,VWS V14.01,2013-04-14 14:49:00,
2013-04-14 10:51:00,83.6,75.6,29.94,SE,131,7.0,12.0,77,0.00,,FEW,0.00,712.00,VWS V14.01,2013-04-14 14:51:00,
2013-04-14 10:54:00,83.5,75.9,29.94,SE,127,6.0,10.0,78,0.00,,FEW,0.00,719.00,VWS V14.01,2013-04-14 14:54:00,
2013-04-14 10:56:00,83.6,76.0,29.94,SSE,149,7.0,10.0,78,0.00,,FEW,0.00,724.00,VWS V14.01,2013-04-14 14:56:00,
2013-04-14 10:59:00,83.7,76.1,29.94,SE,136,5.0,10.0,78,0.00,,FEW,0.00,733.00,VWS V14.01,2013-04-14 14:59:00,
2013-04-14 11:01:00,83.8,76.2,29.94,SE,146,7.0,10.0,78,0.00,,FEW,0.00,737.00,VWS V14.01,2013-04-14 15:01:00,
2013-04-14 11:04:00,83.8,76.2,29.94,ESE,117,8.0,11.0,78,0.00,,FEW,0.00,749.00,VWS V14.01,2013-04-14 15:04:00,
2013-04-14 11:07:00,83.9,76.3,29.94,SSE,151,7.0,12.0,78,0.00,,FEW,0.00,751.00,VWS V14.01,2013-04-14 15:07:00,
2013-04-14 11:09:00,83.7,75.7,29.94,SE,140,4.0,12.0,77,0.00,,FEW,0.00,759.00,VWS V14.01,2013-04-14 15:09:00,
2013-04-14 11:12:00,83.6,76.0,29.94,SE,142,5.0,13.0,78,0.00,,FEW,0.00,766.00,VWS V14.01,2013-04-14 15:12:00,
2013-04-14 11:14:00,83.6,75.6,29.94,SSE,149,8.0,11.0,77,0.00,,FEW,0.00,768.00,VWS V14.01,2013-04-14 15:14:00,
2013-04-14 11:15:00,83.5,75.5,29.94,ESE,106,8.0,11.0,77,0.00,,FEW,0.00,773.00,VWS V14.01,2013-04-14 15:15:00,
2013-04-14 11:17:00,83.5,75.9,29.94,SE,137,8.0,11.0,78,0.00,,FEW,0.00,779.00,VWS V14.01,2013-04-14 15:17:00,
2013-04-14 11:19:00,83.6,76.0,29.94,East,100,9.0,11.0,78,0.00,,FEW,0.00,786.00,VWS V14.01,2013-04-14 15:19:00,
2013-04-14 11:20:00,83.6,76.0,29.94,SSE,153,7.0,11.0,78,0.00,,FEW,0.00,786.00,VWS V14.01,2013-04-14 15:20:00,
2013-04-14 11:22:00,83.7,75.7,29.94,SE,135,3.0,11.0,77,0.00,,FEW,0.00,793.00,VWS V14.01,2013-04-14 15:22:00,
2013-04-14 11:24:00,83.7,75.7,29.94,SSE,149,7.0,9.0,77,0.00,,FEW,0.00,795.00,VWS V14.01,2013-04-14 15:24:00,
2013-04-14 11:25:00,83.7,75.7,29.94,SSE,163,7.0,9.0,77,0.00,,FEW,0.00,795.00,VWS V14.01,2013-04-14 15:25:00,
2013-04-14 11:27:00,83.8,75.8,29.94,SE,138,5.0,10.0,77,0.00,,FEW,0.00,802.00,VWS V14.01,2013-04-14 15:27:00,
2013-04-14 11:29:00,83.8,76.2,29.94,ESE,107,7.0,10.0,78,0.00,,FEW,0.00,803.00,VWS V14.01,2013-04-14 15:29:00,
2013-04-14 11:30:00,83.9,76.3,29.94,SSE,153,5.0,10.0,78,0.00,,FEW,0.00,803.00,VWS V14.01,2013-04-14 15:30:00,
2013-04-14 11:32:00,83.8,76.2,29.94,South,183,8.0,8.0,78,0.00,,FEW,0.00,810.00,VWS V14.01,2013-04-14 15:32:00,
2013-04-14 11:34:00,83.9,76.3,29.94,SSE,163,6.0,9.0,78,0.00,,FEW,0.00,816.00,VWS V14.01,2013-04-14 15:34:00,
2013-04-14 11:35:00,83.9,76.3,29.94,South,180,5.0,9.0,78,0.00,,FEW,0.00,817.00,VWS V14.01,2013-04-14 15:35:00,
2013-04-14 11:37:00,83.8,75.8,29.94,SSE,162,7.0,11.0,77,0.00,,FEW,0.00,824.00,VWS V14.01,2013-04-14 15:37:00,
2013-04-14 11:39:00,83.7,75.7,29.94,SE,145,7.0,11.0,77,0.00,,FEW,0.00,828.00,VWS V14.01,2013-04-14 15:39:00,
2013-04-14 11:40:00,83.7,75.7,29.94,SE,125,4.0,11.0,77,0.00,,FEW,0.00,828.00,VWS V14.01,2013-04-14 15:40:00,
2013-04-14 11:43:00,83.9,76.3,29.94,SE,127,6.0,8.0,78,0.00,,FEW,0.00,835.00,VWS V14.01,2013-04-14 15:43:00,
2013-04-14 11:45:00,84.0,76.0,29.94,SE,130,9.0,11.0,77,0.00,,FEW,0.00,835.00,VWS V14.01,2013-04-14 15:45:00,
2013-04-14 11:46:00,83.9,75.9,29.94,SE,135,6.0,11.0,77,0.00,,FEW,0.00,835.00,VWS V14.01,2013-04-14 15:46:00,
2013-04-14 11:48:00,83.9,75.9,29.94,SE,141,8.0,12.0,77,0.00,,FEW,0.00,844.00,VWS V14.01,2013-04-14 15:48:00,
2013-04-14 11:50:00,83.8,75.8,29.94,SSE,155,6.0,12.0,77,0.00,,FEW,0.00,847.00,VWS V14.01,2013-04-14 15:50:00,
2013-04-14 11:52:00,83.7,75.7,29.94,SSE,156,8.0,12.0,77,0.00,,FEW,0.00,849.00,VWS V14.01,2013-04-14 15:52:00,
2013-04-14 11:53:00,83.6,75.6,29.94,SE,144,10.0,10.0,77,0.00,,FEW,0.00,854.00,VWS V14.01,2013-04-14 15:53:00,
2013-04-14 11:55:00,83.6,76.0,29.94,SSW,197,9.0,11.0,78,0.00,,FEW,0.00,854.00,VWS V14.01,2013-04-14 15:55:00,
2013-04-14 11:57:00,83.6,76.0,29.94,SSE,149,8.0,11.0,78,0.00,,FEW,0.00,854.00,VWS V14.01,2013-04-14 15:57:00,
2013-04-14 11:58:00,83.7,76.1,29.94,SE,133,7.0,11.0,78,0.00,,FEW,0.00,860.00,VWS V14.01,2013-04-14 15:58:00,
2013-04-14 12:00:00,83.8,76.2,29.94,SSE,167,6.0,11.0,78,0.00,,FEW,0.00,860.00,VWS V14.01,2013-04-14 16:00:00,
2013-04-14 12:02:00,83.9,76.3,29.93,South,169,5.0,11.0,78,0.00,,FEW,0.00,867.00,VWS V14.01,2013-04-14 16:02:00,
2013-04-14 12:03:00,83.8,76.2,29.93,SSE,162,7.0,11.0,78,0.00,,FEW,0.00,868.00,VWS V14.01,2013-04-14 16:03:00,
2013-04-14 12:05:00,83.9,76.3,29.93,SE,133,7.0,11.0,78,0.00,,FEW,0.00,875.00,VWS V14.01,2013-04-14 16:05:00,
2013-04-14 12:07:00,83.9,76.3,29.93,SE,132,6.0,11.0,78,0.00,,FEW,0.00,875.00,VWS V14.01,2013-04-14 16:07:00,
2013-04-14 12:08:00,83.8,76.2,29.93,SE,144,7.0,12.0,78,0.00,,FEW,0.00,879.00,VWS V14.01,2013-04-14 16:08:00,
2013-04-14 12:10:00,83.7,76.1,29.93,SE,132,7.0,13.0,78,0.00,,FEW,0.00,882.00,VWS V14.01,2013-04-14 16:10:00,
2013-04-14 12:11:00,83.7,76.1,29.93,SE,134,9.0,13.0,78,0.00,,FEW,0.00,882.00,VWS V14.01,2013-04-14 16:11:00,
2013-04-14 12:12:00,83.7,76.1,29.93,ESE,120,9.0,13.0,78,0.00,,FEW,0.00,882.00,VWS V14.01,2013-04-14 16:12:00,
2013-04-14 12:13:00,83.7,76.1,29.93,SE,133,8.0,10.0,78,0.00,,FEW,0.00,886.00,VWS V14.01,2013-04-14 16:13:00,
2013-04-14 12:15:00,83.7,76.1,29.93,SE,130,10.0,10.0,78,0.00,,FEW,0.00,889.00,VWS V14.01,2013-04-14 16:15:00,
2013-04-14 12:16:00,83.7,76.1,29.93,ESE,111,7.0,10.0,78,0.00,,FEW,0.00,889.00,VWS V14.01,2013-04-14 16:16:00,
2013-04-14 12:17:00,83.6,76.0,29.93,SSE,163,7.0,13.0,78,0.00,,FEW,0.00,889.00,VWS V14.01,2013-04-14 16:17:00,
2013-04-14 12:18:00,83.6,76.0,29.93,SSE,157,10.0,13.0,78,0.00,,FEW,0.00,893.00,VWS V14.01,2013-04-14 16:18:00,
2013-04-14 12:21:00,83.6,76.0,29.93,SE,128,6.0,13.0,78,0.00,,FEW,0.00,900.00,VWS V14.01,2013-04-14 16:21:00,
2013-04-14 12:22:00,83.6,76.0,29.93,SSE,156,12.0,13.0,78,0.00,,FEW,0.00,898.00,VWS V14.01,2013-04-14 16:22:00,
2013-04-14 12:23:00,83.5,75.9,29.93,ESE,109,10.0,10.0,78,0.00,,FEW,0.00,904.00,VWS V14.01,2013-04-14 16:23:00,
2013-04-14 12:26:00,83.5,75.9,29.93,SSE,163,12.0,12.0,78,0.00,,FEW,0.00,900.00,VWS V14.01,2013-04-14 16:26:00,
2013-04-14 12:27:00,83.5,75.9,29.93,SE,133,11.0,14.0,78,0.00,,FEW,0.00,904.00,VWS V14.01,2013-04-14 16:27:00,
2013-04-14 12:29:00,83.5,75.9,29.93,ESE,116,8.0,14.0,78,0.00,,FEW,0.00,905.00,VWS V14.01,2013-04-14 16:29:00,
2013-04-14 12:31:00,83.6,76.0,29.93,SSE,148,10.0,14.0,78,0.00,,FEW,0.00,907.00,VWS V14.01,2013-04-14 16:31:00,
2013-04-14 12:33:00,83.6,76.0,29.93,SE,127,6.0,14.0,78,0.00,,FEW,0.00,912.00,VWS V14.01,2013-04-14 16:33:00,
2013-04-14 12:34:00,83.7,76.1,29.93,SE,145,8.0,14.0,78,0.00,,FEW,0.00,896.00,VWS V14.01,2013-04-14 16:34:00,
2013-04-14 12:36:00,83.8,76.2,29.93,SE,140,8.0,14.0,78,0.00,,FEW,0.00,911.00,VWS V14.01,2013-04-14 16:36:00,
2013-04-14 12:37:00,83.8,76.2,29.93,SE,145,12.0,14.0,78,0.00,,FEW,0.00,918.00,VWS V14.01,2013-04-14 16:37:00,
2013-04-14 12:38:00,83.8,75.8,29.93,ESE,105,11.0,14.0,77,0.00,,FEW,0.00,916.00,VWS V14.01,2013-04-14 16:38:00,
2013-04-14 12:39:00,83.8,75.8,29.93,SE,142,12.0,14.0,77,0.00,,FEW,0.00,918.00,VWS V14.01,2013-04-14 16:39:00,
2013-04-14 12:41:00,83.9,76.3,29.93,SE,137,8.0,14.0,78,0.00,,FEW,0.00,921.00,VWS V14.01,2013-04-14 16:41:00,
2013-04-14 12:42:00,83.9,76.3,29.93,ESE,117,7.0,14.0,78,0.00,,FEW,0.00,923.00,VWS V14.01,2013-04-14 16:42:00,
2013-04-14 12:43:00,83.9,76.3,29.93,SSE,149,7.0,9.0,78,0.00,,FEW,0.00,919.00,VWS V14.01,2013-04-14 16:43:00,
2013-04-14 12:44:00,83.9,76.3,29.93,SE,127,12.0,14.0,78,0.00,,FEW,0.00,921.00,VWS V14.01,2013-04-14 16:44:00,
2013-04-14 12:46:00,83.9,76.3,29.93,SE,132,4.0,14.0,78,0.00,,FEW,0.00,925.00,VWS V14.01,2013-04-14 16:46:00,
2013-04-14 12:47:00,83.9,75.9,29.93,SE,136,7.0,14.0,77,0.00,,FEW,0.00,926.00,VWS V14.01,2013-04-14 16:47:00,
2013-04-14 12:48:00,83.9,76.3,29.93,South,181,7.0,14.0,78,0.00,,FEW,0.00,926.00,VWS V14.01,2013-04-14 16:48:00,
2013-04-14 12:49:00,84.0,76.4,29.93,SE,129,8.0,14.0,78,0.00,,FEW,0.00,925.00,VWS V14.01,2013-04-14 16:49:00,
2013-04-14 12:51:00,84.3,76.7,29.93,SSE,150,5.0,14.0,78,0.00,,FEW,0.00,930.00,VWS V14.01,2013-04-14 16:51:00,
2013-04-14 12:52:00,84.4,76.8,29.93,SE,136,6.0,14.0,78,0.00,,FEW,0.00,933.00,VWS V14.01,2013-04-14 16:52:00,
2013-04-14 12:53:00,84.5,76.9,29.93,SSE,153,8.0,8.0,78,0.00,,FEW,0.00,933.00,VWS V14.01,2013-04-14 16:53:00,
2013-04-14 12:54:00,84.5,76.5,29.93,SE,130,7.0,12.0,77,0.00,,FEW,0.00,932.00,VWS V14.01,2013-04-14 16:54:00,
2013-04-14 12:57:00,84.5,76.1,29.93,SSE,157,11.0,12.0,76,0.00,,FEW,0.00,933.00,VWS V14.01,2013-04-14 16:57:00,
2013-04-14 12:58:00,84.4,76.0,29.93,SSE,153,8.0,12.0,76,0.00,,FEW,0.00,933.00,VWS V14.01,2013-04-14 16:58:00,
2013-04-14 12:59:00,84.4,76.0,29.93,SSE,148,5.0,12.0,76,0.00,,FEW,0.00,937.00,VWS V14.01,2013-04-14 16:59:00,
2013-04-14 13:02:00,84.4,76.4,29.92,SE,141,5.0,12.0,77,0.00,,FEW,0.00,937.00,VWS V14.01,2013-04-14 17:02:00,
2013-04-14 13:03:00,84.5,76.5,29.92,SE,137,12.0,12.0,77,0.00,,FEW,0.00,937.00,VWS V14.01,2013-04-14 17:03:00,
2013-04-14 13:04:00,84.4,76.0,29.92,SE,139,10.0,14.0,76,0.00,,FEW,0.00,939.00,VWS V14.01,2013-04-14 17:04:00,
2013-04-14 13:07:00,84.2,75.8,29.92,SE,140,10.0,14.0,76,0.00,,FEW,0.00,933.00,VWS V14.01,2013-04-14 17:07:00,
2013-04-14 13:08:00,84.2,75.8,29.92,ESE,104,9.0,14.0,76,0.00,,FEW,0.00,935.00,VWS V14.01,2013-04-14 17:08:00,
2013-04-14 13:09:00,84.1,76.1,29.92,East,98,10.0,14.0,77,0.00,,FEW,0.00,939.00,VWS V14.01,2013-04-14 17:09:00,
2013-04-14 13:13:00,84.2,76.2,29.92,SSE,158,6.0,10.0,77,0.00,,FEW,0.00,942.00,VWS V14.01,2013-04-14 17:13:00,
2013-04-14 13:14:00,84.2,76.2,29.92,SSE,153,6.0,13.0,77,0.00,,FEW,0.00,944.00,VWS V14.01,2013-04-14 17:14:00,
2013-04-14 13:18:00,84.3,76.3,29.92,SE,128,11.0,14.0,77,0.00,,FEW,0.00,942.00,VWS V14.01,2013-04-14 17:18:00,
2013-04-14 13:20:00,84.2,76.2,29.92,SSE,147,8.0,14.0,77,0.00,,FEW,0.00,939.00,VWS V14.01,2013-04-14 17:20:00,
2013-04-14 13:23:00,84.1,76.5,29.92,SE,133,11.0,11.0,78,0.00,,FEW,0.00,940.00,VWS V14.01,2013-04-14 17:23:00,
2013-04-14 13:24:00,84.2,76.6,29.92,ESE,117,8.0,11.0,78,0.00,,FEW,0.00,939.00,VWS V14.01,2013-04-14 17:24:00,
2013-04-14 13:25:00,84.3,76.7,29.92,ESE,121,9.0,11.0,78,0.00,,FEW,0.00,942.00,VWS V14.01,2013-04-14 17:25:00,
2013-04-14 13:28:00,84.3,76.7,29.92,ESE,104,3.0,11.0,78,0.00,,FEW,0.00,944.00,VWS V14.01,2013-04-14 17:28:00,
2013-04-14 13:29:00,84.3,77.1,29.92,SSE,153,5.0,11.0,79,0.00,,FEW,0.00,944.00,VWS V14.01,2013-04-14 17:29:00,
2013-04-14 13:30:00,84.4,76.8,29.92,SSE,168,4.0,11.0,78,0.00,,FEW,0.00,940.00,VWS V14.01,2013-04-14 17:30:00,
2013-04-14 13:33:00,84.2,76.6,29.91,SE,126,7.0,10.0,78,0.00,,FEW,0.00,946.00,VWS V14.01,2013-04-14 17:33:00,
2013-04-14 13:34:00,84.2,76.6,29.91,ESE,107,8.0,10.0,78,0.00,,FEW,0.00,946.00,VWS V14.01,2013-04-14 17:34:00,
2013-04-14 13:35:00,84.2,76.6,29.91,SE,144,6.0,10.0,78,0.00,,FEW,0.00,944.00,VWS V14.01,2013-04-14 17:35:00,
2013-04-14 13:38:00,84.1,76.1,29.91,SE,124,3.0,13.0,77,0.00,,FEW,0.00,946.00,VWS V14.01,2013-04-14 17:38:00,
2013-04-14 13:39:00,84.1,76.1,29.91,SE,138,7.0,13.0,77,0.00,,FEW,0.00,944.00,VWS V14.01,2013-04-14 17:39:00,
2013-04-14 13:40:00,84.1,76.1,29.91,SE,145,4.0,13.0,77,0.00,,FEW,0.00,946.00,VWS V14.01,2013-04-14 17:40:00,
2013-04-14 13:43:00,84.1,76.1,29.91,SE,146,5.0,12.0,77,0.00,,FEW,0.00,942.00,VWS V14.01,2013-04-14 17:43:00,
2013-04-14 13:44:00,84.1,76.1,29.91,SE,142,8.0,12.0,77,0.00,,FEW,0.00,944.00,VWS V14.01,2013-04-14 17:44:00,
2013-04-14 13:45:00,84.2,76.2,29.91,SE,146,4.0,12.0,77,0.00,,FEW,0.00,942.00,VWS V14.01,2013-04-14 17:45:00,
2013-04-14 13:48:00,84.3,76.3,29.91,ESE,117,5.0,12.0,77,0.00,,FEW,0.00,940.00,VWS V14.01,2013-04-14 17:48:00,
2013-04-14 13:49:00,84.6,76.6,29.91,SE,141,5.0,12.0,77,0.00,,FEW,0.00,942.00,VWS V14.01,2013-04-14 17:49:00,
2013-04-14 13:50:00,84.7,76.7,29.91,SSE,155,8.0,12.0,77,0.00,,FEW,0.00,942.00,VWS V14.01,2013-04-14 17:50:00,
2013-04-14 13:53:00,84.7,76.3,29.91,ESE,112,5.0,9.0,76,0.00,,FEW,0.00,940.00,VWS V14.01,2013-04-14 17:53:00,
2013-04-14 13:54:00,84.6,76.2,29.91,ESE,115,12.0,12.0,76,0.00,,FEW,0.00,939.00,VWS V14.01,2013-04-14 17:54:00,
2013-04-14 13:55:00,84.5,76.1,29.91,SE,138,7.0,12.0,76,0.00,,FEW,0.00,939.00,VWS V14.01,2013-04-14 17:55:00,
2013-04-14 13:58:00,84.3,75.9,29.91,ESE,119,9.0,12.0,76,0.00,,FEW,0.00,937.00,VWS V14.01,2013-04-14 17:58:00,
2013-04-14 13:59:00,84.3,75.9,29.91,ESE,113,4.0,12.0,76,0.00,,FEW,0.00,937.00,VWS V14.01,2013-04-14 17:59:00,
2013-04-14 14:00:00,84.4,76.0,29.91,SE,137,8.0,12.0,76,0.00,,FEW,0.00,935.00,VWS V14.01,2013-04-14 18:00:00,
2013-04-14 14:04:00,84.3,75.9,29.91,SE,136,8.0,10.0,76,0.00,,FEW,0.00,933.00,VWS V14.01,2013-04-14 18:04:00,
2013-04-14 14:05:00,84.2,75.8,29.91,SE,146,6.0,10.0,76,0.00,,FEW,0.00,932.00,VWS V14.01,2013-04-14 18:05:00,
2013-04-14 14:06:00,84.2,75.8,29.91,SE,128,8.0,13.0,76,0.00,,FEW,0.00,930.00,VWS V14.01,2013-04-14 18:06:00,
2013-04-14 14:09:00,83.9,76.3,29.91,ESE,123,5.0,13.0,78,0.00,,FEW,0.00,928.00,VWS V14.01,2013-04-14 18:09:00,
2013-04-14 14:10:00,84.1,76.5,29.91,SSE,163,7.0,13.0,78,0.00,,FEW,0.00,928.00,VWS V14.01,2013-04-14 18:10:00,
2013-04-14 14:11:00,84.2,76.2,29.91,SE,140,8.0,13.0,77,0.00,,FEW,0.00,926.00,VWS V14.01,2013-04-14 18:11:00,
2013-04-14 14:14:00,84.2,76.2,29.91,ESE,123,7.0,12.0,77,0.00,,FEW,0.00,925.00,VWS V14.01,2013-04-14 18:14:00,
2013-04-14 14:15:00,84.1,76.1,29.91,SSE,167,6.0,12.0,77,0.00,,FEW,0.00,923.00,VWS V14.01,2013-04-14 18:15:00,
2013-04-14 14:16:00,84.1,76.1,29.91,SSE,157,8.0,12.0,77,0.00,,FEW,0.00,921.00,VWS V14.01,2013-04-14 18:16:00,
2013-04-14 14:19:00,84.3,76.3,29.91,SE,135,5.0,12.0,77,0.00,,FEW,0.00,919.00,VWS V14.01,2013-04-14 18:19:00,
2013-04-14 14:20:00,84.3,76.3,29.91,ESE,118,1.0,12.0,77,0.00,,FEW,0.00,919.00,VWS V14.01,2013-04-14 18:20:00,
2013-04-14 14:22:00,84.5,76.5,29.91,SSE,155,5.0,12.0,77,0.00,,FEW,0.00,916.00,VWS V14.01,2013-04-14 18:22:00,
2013-04-14 14:24:00,84.2,76.2,29.91,SE,139,7.0,9.0,77,0.00,,FEW,0.00,912.00,VWS V14.01,2013-04-14 18:24:00,
2013-04-14 14:25:00,84.3,76.7,29.91,SE,146,6.0,9.0,78,0.00,,FEW,0.00,912.00,VWS V14.01,2013-04-14 18:25:00,
2013-04-14 14:27:00,84.4,76.4,29.91,SE,127,9.0,13.0,77,0.00,,FEW,0.00,907.00,VWS V14.01,2013-04-14 18:27:00,
2013-04-14 14:29:00,84.4,76.4,29.91,ESE,118,5.0,13.0,77,0.00,,FEW,0.00,907.00,VWS V14.01,2013-04-14 18:29:00,
2013-04-14 14:30:00,84.2,75.8,29.91,SE,133,5.0,13.0,76,0.00,,FEW,0.00,902.00,VWS V14.01,2013-04-14 18:30:00,
2013-04-14 14:32:00,84.1,76.1,29.91,ESE,119,4.0,13.0,77,0.00,,FEW,0.00,902.00,VWS V14.01,2013-04-14 18:32:00,
2013-04-14 14:34:00,84.3,76.3,29.91,SE,136,7.0,10.0,77,0.00,,FEW,0.00,898.00,VWS V14.01,2013-04-14 18:34:00,
2013-04-14 14:35:00,84.3,75.9,29.91,ESE,119,8.0,10.0,76,0.00,,FEW,0.00,896.00,VWS V14.01,2013-04-14 18:35:00,
2013-04-14 14:37:00,84.4,76.4,29.91,SE,128,7.0,10.0,77,0.00,,FEW,0.00,895.00,VWS V14.01,2013-04-14 18:37:00,
2013-04-14 14:39:00,84.5,76.1,29.91,ESE,111,5.0,10.0,76,0.00,,FEW,0.00,893.00,VWS V14.01,2013-04-14 18:39:00,
2013-04-14 14:40:00,84.6,76.6,29.91,SSE,148,11.0,11.0,77,0.00,,FEW,0.00,893.00,VWS V14.01,2013-04-14 18:40:00,
2013-04-14 14:43:00,84.3,75.5,29.91,SSE,159,4.0,6.0,75,0.00,,FEW,0.00,888.00,VWS V14.01,2013-04-14 18:43:00,
2013-04-14 14:44:00,84.3,75.9,29.91,ESE,123,9.0,10.0,76,0.00,,FEW,0.00,886.00,VWS V14.01,2013-04-14 18:44:00,
2013-04-14 14:45:00,84.3,75.9,29.91,SE,143,4.0,10.0,76,0.00,,FEW,0.00,886.00,VWS V14.01,2013-04-14 18:45:00,
2013-04-14 14:48:00,84.4,76.0,29.90,SSW,198,6.0,10.0,76,0.00,,FEW,0.00,882.00,VWS V14.01,2013-04-14 18:48:00,
2013-04-14 14:49:00,84.4,76.0,29.90,SE,125,8.0,10.0,76,0.00,,FEW,0.00,877.00,VWS V14.01,2013-04-14 18:49:00,
2013-04-14 14:50:00,84.4,76.0,29.90,SE,130,6.0,11.0,76,0.00,,FEW,0.00,875.00,VWS V14.01,2013-04-14 18:50:00,
2013-04-14 14:53:00,84.2,75.4,29.90,South,189,11.0,11.0,75,0.00,,FEW,0.00,872.00,VWS V14.01,2013-04-14 18:53:00,
2013-04-14 14:54:00,84.2,75.8,29.90,South,182,6.0,11.0,76,0.00,,FEW,0.00,868.00,VWS V14.01,2013-04-14 18:54:00,
2013-04-14 14:55:00,84.3,76.3,29.90,SE,140,3.0,11.0,77,0.00,,FEW,0.00,867.00,VWS V14.01,2013-04-14 18:55:00,
2013-04-14 14:58:00,84.5,76.5,29.90,SSE,155,5.0,11.0,77,0.00,,FEW,0.00,861.00,VWS V14.01,2013-04-14 18:58:00,
2013-04-14 14:59:00,84.6,76.6,29.90,SE,137,10.0,12.0,77,0.00,,FEW,0.00,860.00,VWS V14.01,2013-04-14 18:59:00,
2013-04-14 15:00:00,84.6,76.6,29.90,South,180,5.0,12.0,77,0.00,,FEW,0.00,858.00,VWS V14.01,2013-04-14 19:00:00,
2013-04-14 15:01:00,84.5,76.1,29.90,ESE,111,4.0,12.0,76,0.00,,FEW,0.00,856.00,VWS V14.01,2013-04-14 19:01:00,
2013-04-14 15:03:00,84.4,76.4,29.89,East,100,6.0,9.0,77,0.00,,FEW,0.00,851.00,VWS V14.01,2013-04-14 19:03:00,
2013-04-14 15:05:00,84.6,76.6,29.89,ESE,121,10.0,10.0,77,0.00,,FEW,0.00,851.00,VWS V14.01,2013-04-14 19:05:00,
2013-04-14 15:06:00,84.6,76.2,29.89,SE,125,3.0,11.0,76,0.00,,FEW,0.00,847.00,VWS V14.01,2013-04-14 19:06:00,
2013-04-14 15:08:00,84.5,76.1,29.89,ESE,116,3.0,11.0,76,0.00,,FEW,0.00,844.00,VWS V14.01,2013-04-14 19:08:00,
2013-04-14 15:10:00,84.7,76.7,29.89,ESE,122,4.0,11.0,77,0.00,,FEW,0.00,838.00,VWS V14.01,2013-04-14 19:10:00,
2013-04-14 15:11:00,84.7,76.7,29.89,ESE,103,8.0,11.0,77,0.00,,FEW,0.00,837.00,VWS V14.01,2013-04-14 19:11:00,
2013-04-14 15:13:00,84.6,76.2,29.89,SE,145,7.0,10.0,76,0.00,,FEW,0.00,831.00,VWS V14.01,2013-04-14 19:13:00,
2013-04-14 15:15:00,84.5,76.1,29.89,SE,132,9.0,10.0,76,0.00,,FEW,0.00,831.00,VWS V14.01,2013-04-14 19:15:00,
2013-04-14 15:17:00,84.3,75.9,29.89,SE,126,4.0,10.0,76,0.00,,FEW,0.00,828.00,VWS V14.01,2013-04-14 19:17:00,
2013-04-14 15:18:00,84.3,76.3,29.89,SE,146,6.0,10.0,77,0.00,,FEW,0.00,826.00,VWS V14.01,2013-04-14 19:18:00,
2013-04-14 15:20:00,84.3,76.3,29.89,ESE,102,4.0,10.0,77,0.00,,FEW,0.00,821.00,VWS V14.01,2013-04-14 19:20:00,
2013-04-14 15:22:00,84.3,75.9,29.89,East,100,10.0,12.0,76,0.00,,FEW,0.00,817.00,VWS V14.01,2013-04-14 19:22:00,
2013-04-14 15:23:00,84.1,75.3,29.89,South,179,5.0,13.0,75,0.00,,FEW,0.00,816.00,VWS V14.01,2013-04-14 19:23:00,
2013-04-14 15:25:00,84.0,75.2,29.89,SE,143,6.0,13.0,75,0.00,,FEW,0.00,810.00,VWS V14.01,2013-04-14 19:25:00,
2013-04-14 15:27:00,83.9,75.5,29.89,SE,140,9.0,13.0,76,0.00,,FEW,0.00,803.00,VWS V14.01,2013-04-14 19:27:00,
2013-04-14 15:28:00,83.9,75.5,29.89,ESE,117,9.0,13.0,76,0.00,,FEW,0.00,802.00,VWS V14.01,2013-04-14 19:28:00,
2013-04-14 15:30:00,83.9,75.5,29.89,East,97,8.0,13.0,76,0.00,,FEW,0.00,798.00,VWS V14.01,2013-04-14 19:30:00,
2013-04-14 15:32:00,84.2,76.2,29.89,ESE,115,9.0,13.0,77,0.00,,FEW,0.00,795.00,VWS V14.01,2013-04-14 19:32:00,
2013-04-14 15:34:00,84.2,75.8,29.89,SSE,153,8.0,12.0,76,0.00,,FEW,0.00,788.00,VWS V14.01,2013-04-14 19:34:00,
2013-04-14 15:35:00,84.1,75.7,29.89,ESE,109,8.0,13.0,76,0.00,,FEW,0.00,786.00,VWS V14.01,2013-04-14 19:35:00,
2013-04-14 15:38:00,83.8,75.8,29.89,SE,132,5.0,13.0,77,0.00,,FEW,0.00,782.00,VWS V14.01,2013-04-14 19:38:00,
2013-04-14 15:39:00,84.0,76.0,29.89,SSE,148,6.0,13.0,77,0.00,,FEW,0.00,775.00,VWS V14.01,2013-04-14 19:39:00,
2013-04-14 15:40:00,84.1,76.1,29.89,ESE,123,10.0,13.0,77,0.00,,FEW,0.00,775.00,VWS V14.01,2013-04-14 19:40:00,
2013-04-14 15:43:00,84.1,75.7,29.89,ESE,112,7.0,11.0,76,0.00,,FEW,0.00,770.00,VWS V14.01,2013-04-14 19:43:00,
2013-04-14 15:44:00,84.0,75.6,29.89,ESE,103,7.0,11.0,76,0.00,,FEW,0.00,766.00,VWS V14.01,2013-04-14 19:44:00,
2013-04-14 15:45:00,84.0,75.6,29.89,SE,139,8.0,11.0,76,0.00,,FEW,0.00,763.00,VWS V14.01,2013-04-14 19:45:00,
2013-04-14 15:48:00,84.0,76.0,29.88,ESE,122,13.0,13.0,77,0.00,,FEW,0.00,756.00,VWS V14.01,2013-04-14 19:48:00,
2013-04-14 15:50:00,83.8,75.8,29.88,SSE,147,10.0,13.0,77,0.00,,FEW,0.00,752.00,VWS V14.01,2013-04-14 19:50:00,
2013-04-14 15:51:00,83.8,75.8,29.88,SSE,147,7.0,13.0,77,0.00,,FEW,0.00,747.00,VWS V14.01,2013-04-14 19:51:00,
2013-04-14 15:53:00,83.8,76.2,29.88,ESE,111,8.0,9.0,78,0.00,,FEW,0.00,744.00,VWS V14.01,2013-04-14 19:53:00,
2013-04-14 15:55:00,83.9,75.9,29.88,ESE,107,4.0,12.0,77,0.00,,FEW,0.00,740.00,VWS V14.01,2013-04-14 19:55:00,
2013-04-14 15:56:00,84.1,76.5,29.88,ESE,105,7.0,12.0,78,0.00,,FEW,0.00,737.00,VWS V14.01,2013-04-14 19:56:00,
2013-04-14 15:58:00,84.5,76.1,29.88,SE,140,9.0,12.0,76,0.00,,FEW,0.00,731.00,VWS V14.01,2013-04-14 19:58:00,
2013-04-14 16:00:00,84.3,75.9,29.88,ESE,107,8.0,14.0,76,0.00,,FEW,0.00,728.00,VWS V14.01,2013-04-14 20:00:00,
2013-04-14 16:01:00,84.2,75.8,29.88,SE,141,8.0,14.0,76,0.00,,FEW,0.00,722.00,VWS V14.01,2013-04-14 20:01:00,
2013-04-14 16:03:00,84.1,75.7,29.87,SSE,149,7.0,13.0,76,0.00,,FEW,0.00,717.00,VWS V14.01,2013-04-14 20:03:00,
2013-04-14 16:05:00,83.9,75.5,29.87,ESE,118,13.0,19.0,76,0.00,,FEW,0.00,715.00,VWS V14.01,2013-04-14 20:05:00,
2013-04-14 16:06:00,83.9,75.5,29.87,SE,124,9.0,19.0,76,0.00,,FEW,0.00,712.00,VWS V14.01,2013-04-14 20:06:00,
2013-04-14 16:08:00,84.0,75.6,29.87,SE,146,10.0,19.0,76,0.00,,FEW,0.00,701.00,VWS V14.01,2013-04-14 20:08:00,
2013-04-14 16:10:00,83.8,75.4,29.87,SE,146,6.0,19.0,76,0.00,,FEW,0.00,698.00,VWS V14.01,2013-04-14 20:10:00,
2013-04-14 16:11:00,83.7,75.3,29.87,SE,131,7.0,19.0,76,0.00,,FEW,0.00,694.00,VWS V14.01,2013-04-14 20:11:00,
2013-04-14 16:13:00,83.5,75.1,29.87,SE,135,12.0,12.0,76,0.00,,FEW,0.00,689.00,VWS V14.01,2013-04-14 20:13:00,
2013-04-14 16:15:00,83.5,75.5,29.87,SE,142,7.0,12.0,77,0.00,,FEW,0.00,682.00,VWS V14.01,2013-04-14 20:15:00,
2013-04-14 16:16:00,83.4,75.4,29.87,East,95,10.0,12.0,77,0.00,,FEW,0.00,680.00,VWS V14.01,2013-04-14 20:16:00,
2013-04-14 16:18:00,83.5,75.9,29.87,ESE,112,9.0,12.0,78,0.00,,FEW,0.00,671.00,VWS V14.01,2013-04-14 20:18:00,
2013-04-14 16:20:00,83.6,75.6,29.87,ESE,115,9.0,12.0,77,0.00,,FEW,0.00,668.00,VWS V14.01,2013-04-14 20:20:00,
2013-04-14 16:21:00,83.7,75.7,29.87,SSE,159,4.0,12.0,77,0.00,,FEW,0.00,668.00,VWS V14.01,2013-04-14 20:21:00,
2013-04-14 16:23:00,83.9,76.3,29.87,SE,134,8.0,15.0,78,0.00,,FEW,0.00,659.00,VWS V14.01,2013-04-14 20:23:00,
2013-04-14 16:25:00,83.7,75.7,29.87,ESE,118,12.0,15.0,77,0.00,,FEW,0.00,654.00,VWS V14.01,2013-04-14 20:25:00,
2013-04-14 16:26:00,83.7,75.3,29.87,SE,141,8.0,15.0,76,0.00,,FEW,0.00,650.00,VWS V14.01,2013-04-14 20:26:00,
2013-04-14 16:28:00,83.7,76.1,29.87,ESE,106,9.0,15.0,78,0.00,,FEW,0.00,645.00,VWS V14.01,2013-04-14 20:28:00,
2013-04-14 16:30:00,83.8,75.8,29.87,East,87,8.0,15.0,77,0.00,,FEW,0.00,638.00,VWS V14.01,2013-04-14 20:30:00,
2013-04-14 16:31:00,83.9,75.9,29.87,NNE,30,2.0,15.0,77,0.00,,FEW,0.00,636.00,VWS V14.01,2013-04-14 20:31:00,
2013-04-14 16:33:00,84.0,76.0,29.87,SE,128,5.0,9.0,77,0.00,,FEW,0.00,628.00,VWS V14.01,2013-04-14 20:33:00,
2013-04-14 16:35:00,83.8,75.4,29.87,ESE,110,11.0,12.0,76,0.00,,FEW,0.00,621.00,VWS V14.01,2013-04-14 20:35:00,
2013-04-14 16:37:00,83.7,75.3,29.87,East,93,6.0,12.0,76,0.00,,FEW,0.00,617.00,VWS V14.01,2013-04-14 20:37:00,
2013-04-14 16:38:00,83.6,75.6,29.87,ESE,115,5.0,12.0,77,0.00,,FEW,0.00,612.00,VWS V14.01,2013-04-14 20:38:00,
2013-04-14 16:40:00,83.7,75.7,29.87,SSE,168,6.0,12.0,77,0.00,,FEW,0.00,603.00,VWS V14.01,2013-04-14 20:40:00,
2013-04-14 16:42:00,83.7,75.7,29.87,ESE,113,9.0,13.0,77,0.00,,FEW,0.00,601.00,VWS V14.01,2013-04-14 20:42:00,
2013-04-14 16:43:00,83.6,75.2,29.87,SE,144,9.0,14.0,76,0.00,,FEW,0.00,598.00,VWS V14.01,2013-04-14 20:43:00,
2013-04-14 16:46:00,83.5,75.5,29.87,ESE,123,5.0,14.0,77,0.00,,FEW,0.00,591.00,VWS V14.01,2013-04-14 20:46:00,
2013-04-14 16:47:00,83.5,75.5,29.87,SE,139,9.0,14.0,77,0.00,,FEW,0.00,587.00,VWS V14.01,2013-04-14 20:47:00,
2013-04-14 16:49:00,83.4,75.4,29.87,SSE,148,6.0,17.0,77,0.00,,FEW,0.00,580.00,VWS V14.01,2013-04-14 20:49:00,
2013-04-14 16:51:00,83.4,75.4,29.87,SE,125,8.0,17.0,77,0.00,,FEW,0.00,571.00,VWS V14.01,2013-04-14 20:51:00,
2013-04-14 16:52:00,83.4,75.4,29.87,ESE,116,9.0,17.0,77,0.00,,FEW,0.00,570.00,VWS V14.01,2013-04-14 20:52:00,
2013-04-14 16:54:00,83.5,75.5,29.87,SE,127,8.0,12.0,77,0.00,,FEW,0.00,561.00,VWS V14.01,2013-04-14 20:54:00,
2013-04-14 16:56:00,83.5,75.9,29.87,SSE,148,3.0,12.0,78,0.00,,FEW,0.00,554.00,VWS V14.01,2013-04-14 20:56:00,
2013-04-14 16:57:00,83.6,76.0,29.87,ESE,121,7.0,12.0,78,0.00,,FEW,0.00,552.00,VWS V14.01,2013-04-14 20:57:00,
2013-04-14 16:58:00,83.6,75.6,29.87,SSE,159,7.0,12.0,77,0.00,,FEW,0.00,548.00,VWS V14.01,2013-04-14 20:58:00,
2013-04-14 16:59:00,83.6,75.6,29.87,ESE,121,10.0,12.0,77,0.00,,FEW,0.00,543.00,VWS V14.01,2013-04-14 20:59:00,
2013-04-14 17:01:00,83.6,76.0,29.87,ESE,123,3.0,12.0,78,0.00,,FEW,0.00,540.00,VWS V14.01,2013-04-14 21:01:00,
2013-04-14 17:03:00,83.8,76.2,29.87,ESE,123,8.0,8.0,78,0.00,,FEW,0.00,536.00,VWS V14.01,2013-04-14 21:03:00,
2013-04-14 17:04:00,83.9,75.9,29.87,SE,145,5.0,8.0,77,0.00,,FEW,0.00,527.00,VWS V14.01,2013-04-14 21:04:00,
2013-04-14 17:06:00,83.9,75.9,29.87,SE,134,7.0,10.0,77,0.00,,FEW,0.00,519.00,VWS V14.01,2013-04-14 21:06:00,
2013-04-14 17:08:00,83.5,75.1,29.87,SE,141,9.0,12.0,76,0.00,,FEW,0.00,513.00,VWS V14.01,2013-04-14 21:08:00,
2013-04-14 17:09:00,83.3,75.3,29.87,ESE,117,9.0,12.0,77,0.00,,FEW,0.00,510.00,VWS V14.01,2013-04-14 21:09:00,
2013-04-14 17:12:00,83.0,75.1,29.87,East,87,6.0,12.0,77,0.00,,FEW,0.00,501.00,VWS V14.01,2013-04-14 21:12:00,
2013-04-14 17:13:00,82.9,74.9,29.87,ESE,108,4.0,10.0,77,0.00,,FEW,0.00,494.00,VWS V14.01,2013-04-14 21:13:00,
2013-04-14 17:14:00,83.0,75.4,29.87,SE,127,2.0,10.0,78,0.00,,FEW,0.00,489.00,VWS V14.01,2013-04-14 21:14:00,
2013-04-14 17:17:00,83.4,75.4,29.88,East,96,14.0,14.0,77,0.00,,FEW,0.00,483.00,VWS V14.01,2013-04-14 21:17:00,
2013-04-14 17:18:00,83.2,75.2,29.88,SE,142,5.0,14.0,77,0.00,,FEW,0.00,480.00,VWS V14.01,2013-04-14 21:18:00,
2013-04-14 17:19:00,83.2,75.2,29.88,SE,135,4.0,14.0,77,0.00,,FEW,0.00,476.00,VWS V14.01,2013-04-14 21:19:00,
2013-04-14 17:23:00,83.2,75.2,29.88,SE,124,9.0,9.0,77,0.00,,FEW,0.00,462.00,VWS V14.01,2013-04-14 21:23:00,
2013-04-14 17:24:00,83.1,75.2,29.88,SE,146,6.0,11.0,77,0.00,,FEW,0.00,455.00,VWS V14.01,2013-04-14 21:24:00,
2013-04-14 17:28:00,83.5,76.3,29.88,ESE,111,5.0,11.0,79,0.00,,FEW,0.00,443.00,VWS V14.01,2013-04-14 21:28:00,
2013-04-14 17:30:00,83.7,76.1,29.88,SE,138,11.0,11.0,78,0.00,,FEW,0.00,439.00,VWS V14.01,2013-04-14 21:30:00,
2013-04-14 17:33:00,83.4,75.1,29.88,SSE,153,10.0,10.0,76,0.00,,FEW,0.00,425.00,VWS V14.01,2013-04-14 21:33:00,
2013-04-14 17:34:00,83.3,74.9,29.88,SE,126,5.0,10.0,76,0.00,,FEW,0.00,425.00,VWS V14.01,2013-04-14 21:34:00,
2013-04-14 17:35:00,83.2,75.2,29.88,East,99,2.0,10.0,77,0.00,,FEW,0.00,417.00,VWS V14.01,2013-04-14 21:35:00,
2013-04-14 17:38:00,83.7,75.7,29.88,SE,125,9.0,10.0,77,0.00,,FEW,0.00,406.00,VWS V14.01,2013-04-14 21:38:00,
2013-04-14 17:39:00,83.7,75.7,29.88,SE,128,6.0,10.0,77,0.00,,FEW,0.00,406.00,VWS V14.01,2013-04-14 21:39:00,
2013-04-14 17:40:00,83.7,75.7,29.88,East,81,6.0,10.0,77,0.00,,FEW,0.00,399.00,VWS V14.01,2013-04-14 21:40:00,
2013-04-14 17:43:00,83.8,75.8,29.88,ESE,109,3.0,6.0,77,0.00,,FEW,0.00,390.00,VWS V14.01,2013-04-14 21:43:00,
2013-04-14 17:44:00,83.8,75.8,29.88,SSE,163,3.0,6.0,77,0.00,,FEW,0.00,383.00,VWS V14.01,2013-04-14 21:44:00,
2013-04-14 17:45:00,83.9,75.9,29.88,SE,140,7.0,7.0,77,0.00,,FEW,0.00,380.00,VWS V14.01,2013-04-14 21:45:00,
2013-04-14 17:48:00,84.0,76.0,29.88,SE,146,9.0,11.0,77,0.00,,FEW,0.00,367.00,VWS V14.01,2013-04-14 21:48:00,
2013-04-14 17:49:00,84.0,75.6,29.88,ESE,121,4.0,11.0,76,0.00,,FEW,0.00,367.00,VWS V14.01,2013-04-14 21:49:00,
2013-04-14 17:50:00,83.8,75.4,29.88,SE,139,3.0,11.0,76,0.00,,FEW,0.00,360.00,VWS V14.01,2013-04-14 21:50:00,
2013-04-14 17:54:00,83.9,75.9,29.88,East,97,2.0,7.0,77,0.00,,FEW,0.00,350.00,VWS V14.01,2013-04-14 21:54:00,
2013-04-14 17:56:00,83.7,75.3,29.88,SE,128,6.0,9.0,76,0.00,,FEW,0.00,341.00,VWS V14.01,2013-04-14 21:56:00,
2013-04-14 17:59:00,83.6,75.2,29.88,ESE,116,2.0,10.0,76,0.00,,FEW,0.00,332.00,VWS V14.01,2013-04-14 21:59:00,
2013-04-14 18:01:00,83.6,75.6,29.88,East,83,5.0,10.0,77,0.00,,FEW,0.00,322.00,VWS V14.01,2013-04-14 22:01:00,
2013-04-14 18:04:00,83.5,75.5,29.88,ESE,121,5.0,9.0,77,0.00,,FEW,0.00,311.00,VWS V14.01,2013-04-14 22:04:00,
2013-04-14 18:07:00,83.4,75.4,29.88,SE,124,8.0,9.0,77,0.00,,FEW,0.00,301.00,VWS V14.01,2013-04-14 22:07:00,
2013-04-14 18:08:00,83.4,75.4,29.88,ESE,103,2.0,10.0,77,0.00,,FEW,0.00,295.00,VWS V14.01,2013-04-14 22:08:00,
2013-04-14 18:09:00,83.4,75.4,29.88,East,92,3.0,10.0,77,0.00,,FEW,0.00,294.00,VWS V14.01,2013-04-14 22:09:00,
2013-04-14 18:12:00,83.4,75.4,29.88,SE,133,4.0,12.0,77,0.00,,FEW,0.00,283.00,VWS V14.01,2013-04-14 22:12:00,
2013-04-14 18:13:00,83.3,75.3,29.88,SSE,150,4.0,8.0,77,0.00,,FEW,0.00,278.00,VWS V14.01,2013-04-14 22:13:00,
2013-04-14 18:14:00,83.2,75.2,29.88,SE,132,4.0,8.0,77,0.00,,FEW,0.00,274.00,VWS V14.01,2013-04-14 22:14:00,
2013-04-14 18:17:00,83.3,75.7,29.88,SE,140,5.0,8.0,78,0.00,,FEW,0.00,260.00,VWS V14.01,2013-04-14 22:17:00,
2013-04-14 18:18:00,83.3,75.3,29.88,ESE,120,4.0,8.0,77,0.00,,FEW,0.00,260.00,VWS V14.01,2013-04-14 22:18:00,
2013-04-14 18:19:00,83.3,75.7,29.88,SE,126,7.0,8.0,78,0.00,,FEW,0.00,258.00,VWS V14.01,2013-04-14 22:19:00,
2013-04-14 18:23:00,83.3,75.3,29.88,East,88,3.0,4.0,77,0.00,,FEW,0.00,243.00,VWS V14.01,2013-04-14 22:23:00,
2013-04-14 18:24:00,83.3,75.3,29.88,SE,135,4.0,5.0,77,0.00,,FEW,0.00,234.00,VWS V14.01,2013-04-14 22:24:00,
2013-04-14 18:28:00,83.3,75.3,29.88,ENE,71,0.0,9.0,77,0.00,,FEW,0.00,220.00,VWS V14.01,2013-04-14 22:28:00,
2013-04-14 18:29:00,83.3,75.7,29.88,ESE,121,3.0,9.0,78,0.00,,FEW,0.00,218.00,VWS V14.01,2013-04-14 22:29:00,
2013-04-14 18:33:00,83.3,75.3,29.88,East,80,3.0,5.0,77,0.00,,FEW,0.00,202.00,VWS V14.01,2013-04-14 22:33:00,
2013-04-14 18:34:00,83.3,75.7,29.88,ESE,102,1.0,5.0,78,0.00,,FEW,0.00,199.00,VWS V14.01,2013-04-14 22:34:00,
2013-04-14 18:38:00,83.3,76.1,29.88,East,98,6.0,8.0,79,0.00,,FEW,0.00,183.00,VWS V14.01,2013-04-14 22:38:00,
2013-04-14 18:39:00,83.3,76.1,29.88,ESE,107,4.0,8.0,79,0.00,,FEW,0.00,178.00,VWS V14.01,2013-04-14 22:39:00,
2013-04-14 18:43:00,83.1,75.9,29.88,East,85,2.0,3.0,79,0.00,,FEW,0.00,163.00,VWS V14.01,2013-04-14 22:43:00,
2013-04-14 18:44:00,83.0,76.2,29.88,SE,134,2.0,7.0,80,0.00,,FEW,0.00,162.00,VWS V14.01,2013-04-14 22:44:00,
2013-04-14 18:45:00,83.0,76.2,29.88,ENE,66,3.0,7.0,80,0.00,,FEW,0.00,158.00,VWS V14.01,2013-04-14 22:45:00,
2013-04-14 18:46:00,83.0,75.8,29.88,East,90,6.0,7.0,79,0.00,,FEW,0.00,158.00,VWS V14.01,2013-04-14 22:46:00,
2013-04-14 18:48:00,82.9,76.1,29.88,ENE,68,2.0,7.0,80,0.00,,FEW,0.00,146.00,VWS V14.01,2013-04-14 22:48:00,
2013-04-14 18:49:00,82.9,76.1,29.88,East,90,3.0,8.0,80,0.00,,FEW,0.00,144.00,VWS V14.01,2013-04-14 22:49:00,
2013-04-14 18:50:00,82.8,76.0,29.88,ENE,68,2.0,8.0,80,0.00,,FEW,0.00,141.00,VWS V14.01,2013-04-14 22:50:00,
2013-04-14 18:51:00,82.8,76.0,29.88,ESE,122,3.0,8.0,80,0.00,,FEW,0.00,137.00,VWS V14.01,2013-04-14 22:51:00,
2013-04-14 18:53:00,82.7,75.9,29.88,ESE,103,2.0,4.0,80,0.00,,FEW,0.00,130.00,VWS V14.01,2013-04-14 22:53:00,
2013-04-14 18:55:00,82.7,75.9,29.88,SE,133,3.0,7.0,80,0.00,,FEW,0.00,123.00,VWS V14.01,2013-04-14 22:55:00,
2013-04-14 18:56:00,82.7,75.9,29.88,East,100,1.0,7.0,80,0.00,,FEW,0.00,120.00,VWS V14.01,2013-04-14 22:56:00,
2013-04-14 18:58:00,82.7,75.9,29.88,ESE,123,2.0,7.0,80,0.00,,FEW,0.00,113.00,VWS V14.01,2013-04-14 22:58:00,
2013-04-14 19:00:00,82.6,75.8,29.88,SE,134,4.0,8.0,80,0.00,,FEW,0.00,107.00,VWS V14.01,2013-04-14 23:00:00,
2013-04-14 19:02:00,82.5,75.7,29.88,SE,136,2.0,8.0,80,0.00,,FEW,0.00,100.00,VWS V14.01,2013-04-14 23:02:00,
2013-04-14 19:03:00,82.5,75.7,29.88,ESE,123,3.0,3.0,80,0.00,,FEW,0.00,93.00,VWS V14.01,2013-04-14 23:03:00,
2013-04-14 19:05:00,82.3,75.5,29.88,ESE,105,3.0,8.0,80,0.00,,FEW,0.00,86.00,VWS V14.01,2013-04-14 23:05:00,
2013-04-14 19:06:00,82.3,75.5,29.88,East,96,5.0,8.0,80,0.00,,FEW,0.00,86.00,VWS V14.01,2013-04-14 23:06:00,
2013-04-14 19:07:00,82.2,75.4,29.88,East,90,8.0,8.0,80,0.00,,FEW,0.00,84.00,VWS V14.01,2013-04-14 23:07:00,
2013-04-14 19:08:00,82.1,75.3,29.88,SE,146,1.0,10.0,80,0.00,,FEW,0.00,77.00,VWS V14.01,2013-04-14 23:08:00,
2013-04-14 19:10:00,82.0,75.2,29.88,SE,127,1.0,10.0,80,0.00,,FEW,0.00,70.00,VWS V14.01,2013-04-14 23:10:00,
2013-04-14 19:11:00,82.0,75.2,29.88,SE,124,2.0,11.0,80,0.00,,FEW,0.00,69.00,VWS V14.01,2013-04-14 23:11:00,
2013-04-14 19:12:00,81.9,75.1,29.88,East,94,5.0,11.0,80,0.00,,FEW,0.00,65.00,VWS V14.01,2013-04-14 23:12:00,
2013-04-14 19:13:00,81.9,75.1,29.88,ENE,64,3.0,8.0,80,0.00,,FEW,0.00,63.00,VWS V14.01,2013-04-14 23:13:00,
2013-04-14 19:15:00,81.8,75.4,29.88,East,92,1.0,8.0,81,0.00,,FEW,0.00,56.00,VWS V14.01,2013-04-14 23:15:00,
2013-04-14 19:16:00,81.8,75.4,29.88,SE,130,2.0,8.0,81,0.00,,FEW,0.00,49.00,VWS V14.01,2013-04-14 23:16:00,
2013-04-14 19:17:00,81.8,75.4,29.88,East,80,3.0,8.0,81,0.00,,FEW,0.00,49.00,VWS V14.01,2013-04-14 23:17:00,
2013-04-14 19:18:00,81.7,75.3,29.88,ESE,105,1.0,8.0,81,0.00,,FEW,0.00,39.00,VWS V14.01,2013-04-14 23:18:00,
2013-04-14 19:20:00,81.6,75.2,29.88,NE,43,5.0,8.0,81,0.00,,FEW,0.00,39.00,VWS V14.01,2013-04-14 23:20:00,
2013-04-14 19:22:00,81.6,75.2,29.88,SE,142,3.0,8.0,81,0.00,,FEW,0.00,37.00,VWS V14.01,2013-04-14 23:22:00,
2013-04-14 19:24:00,81.5,75.1,29.88,East,100,2.0,8.0,81,0.00,,FEW,0.00,30.00,VWS V14.01,2013-04-14 23:24:00,
2013-04-14 19:25:00,81.4,75.4,29.88,ENE,74,2.0,8.0,82,0.00,,FEW,0.00,26.00,VWS V14.01,2013-04-14 23:25:00,
2013-04-14 19:27:00,81.4,75.4,29.88,East,100,6.0,8.0,82,0.00,,FEW,0.00,26.00,VWS V14.01,2013-04-14 23:27:00,
2013-04-14 19:29:00,81.3,75.3,29.88,SE,137,1.0,8.0,82,0.00,,FEW,0.00,25.00,VWS V14.01,2013-04-14 23:29:00,
2013-04-14 19:31:00,81.3,75.3,29.88,SE,133,0.0,8.0,82,0.00,,FEW,0.00,21.00,VWS V14.01,2013-04-14 23:31:00,
2013-04-14 19:32:00,81.2,75.2,29.88,ESE,103,1.0,8.0,82,0.00,,FEW,0.00,18.00,VWS V14.01,2013-04-14 23:32:00,
2013-04-14 19:33:00,81.3,75.3,29.88,ESE,118,3.0,5.0,82,0.00,,FEW,0.00,18.00,VWS V14.01,2013-04-14 23:33:00,
2013-04-14 19:34:00,81.2,75.2,29.88,East,90,3.0,11.0,82,0.00,,FEW,0.00,14.00,VWS V14.01,2013-04-14 23:34:00,
2013-04-14 19:36:00,81.1,75.1,29.88,ESE,120,5.0,11.0,82,0.00,,FEW,0.00,11.00,VWS V14.01,2013-04-14 23:36:00,
2013-04-14 19:37:00,81.1,75.4,29.88,East,90,5.0,11.0,83,0.00,,FEW,0.00,11.00,VWS V14.01,2013-04-14 23:37:00,
2013-04-14 19:38:00,81.0,75.3,29.88,East,94,5.0,11.0,83,0.00,,FEW,0.00,11.00,VWS V14.01,2013-04-14 23:38:00,
2013-04-14 19:39:00,81.0,75.3,29.88,SE,131,2.0,11.0,83,0.00,,FEW,0.00,9.00,VWS V14.01,2013-04-14 23:39:00,
2013-04-14 19:41:00,80.9,75.3,29.88,South,184,5.0,11.0,83,0.00,,FEW,0.00,7.00,VWS V14.01,2013-04-14 23:41:00,
2013-04-14 19:42:00,80.9,75.3,29.88,East,82,2.0,11.0,83,0.00,,FEW,0.00,7.00,VWS V14.01,2013-04-14 23:42:00,
2013-04-14 19:43:00,80.8,75.2,29.88,East,83,2.0,4.0,83,0.00,,FEW,0.00,5.00,VWS V14.01,2013-04-14 23:43:00,
2013-04-14 19:44:00,80.8,75.2,29.88,SE,128,1.0,4.0,83,0.00,,FEW,0.00,5.00,VWS V14.01,2013-04-14 23:44:00,
2013-04-14 19:46:00,80.7,75.4,29.88,ESE,120,1.0,9.0,84,0.00,,FEW,0.00,0.00,VWS V14.01,2013-04-14 23:46:00,
2013-04-14 19:47:00,80.7,75.4,29.88,SE,128,1.0,9.0,84,0.00,,FEW,0.00,0.00,VWS V14.01,2013-04-14 23:47:00,
2013-04-14 19:49:00,80.7,75.4,29.88,ENE,76,0.0,9.0,84,0.00,,FEW,0.00,0.00,VWS V14.01,2013-04-14 23:49:00,
2013-04-14 19:52:00,80.6,75.3,29.88,ESE,111,1.0,9.0,84,0.00,,FEW,0.00,0.00,VWS V14.01,2013-04-14 23:52:00,
2013-04-14 19:54:00,80.6,75.3,29.88,ENE,68,3.0,9.0,84,0.00,,FEW,0.00,0.00,VWS V14.01,2013-04-14 23:54:00,
2013-04-14 19:57:00,80.5,75.6,29.88,ENE,74,3.0,9.0,85,0.00,,FEW,0.00,0.00,VWS V14.01,2013-04-14 23:57:00,
2013-04-14 19:59:00,80.4,75.5,29.88,SE,131,4.0,9.0,85,0.00,,FEW,0.00,0.00,VWS V14.01,2013-04-14 23:59:00,
2013-04-14 20:02:00,80.3,75.4,29.88,NE,55,1.0,9.0,85,0.00,,FEW,0.00,0.00,VWS V14.01,2013-04-15 00:02:00,
2013-04-14 20:04:00,80.2,75.3,29.88,ENE,78,2.0,7.0,85,0.00,,FEW,0.00,0.00,VWS V14.01,2013-04-15 00:04:00,
2013-04-14 20:07:00,80.2,75.3,29.88,East,90,0.0,7.0,85,0.00,,FEW,0.00,0.00,VWS V14.01,2013-04-15 00:07:00,
2013-04-14 20:08:00,80.2,75.3,29.88,SE,143,2.0,7.0,85,0.00,,FEW,0.00,0.00,VWS V14.01,2013-04-15 00:08:00,
2013-04-14 20:09:00,80.1,75.2,29.88,ESE,105,1.0,7.0,85,0.00,,FEW,0.00,0.00,VWS V14.01,2013-04-15 00:09:00,
2013-04-14 20:10:00,80.1,75.2,29.88,ESE,120,4.0,10.0,85,0.00,,FEW,0.00,0.00,VWS V14.01,2013-04-15 00:10:00,
2013-04-14 20:12:00,80.1,75.5,29.88,ESE,106,5.0,10.0,86,0.00,,FEW,0.00,0.00,VWS V14.01,2013-04-15 00:12:00,
2013-04-14 20:13:00,80.1,75.5,29.88,East,101,1.0,5.0,86,0.00,,FEW,0.00,0.00,VWS V14.01,2013-04-15 00:13:00,
2013-04-14 20:14:00,80.0,75.4,29.88,ESE,114,3.0,8.0,86,0.00,,FEW,0.00,0.00,VWS V14.01,2013-04-15 00:14:00,
2013-04-14 20:15:00,80.0,75.4,29.88,SSE,151,3.0,8.0,86,0.00,,FEW,0.00,0.00,VWS V14.01,2013-04-15 00:15:00,
2013-04-14 20:17:00,80.0,75.4,29.89,ESE,102,2.0,9.0,86,0.00,,FEW,0.00,0.00,VWS V14.01,2013-04-15 00:17:00,
2013-04-14 20:18:00,80.0,75.4,29.89,ESE,102,1.0,9.0,86,0.00,,FEW,0.00,0.00,VWS V14.01,2013-04-15 00:18:00,
2013-04-14 20:19:00,80.0,75.4,29.89,ENE,74,3.0,9.0,86,0.00,,FEW,0.00,0.00,VWS V14.01,2013-04-15 00:19:00,
2013-04-14 20:20:00,80.0,75.4,29.89,SE,133,6.0,9.0,86,0.00,,FEW,0.00,0.00,VWS V14.01,2013-04-15 00:20:00,
2013-04-14 20:22:00,79.9,75.3,29.89,ESE,105,2.0,3.0,86,0.00,,FEW,0.00,0.00,VWS V14.01,2013-04-15 00:22:00,
2013-04-14 20:23:00,80.0,75.4,29.89,East,79,1.0,7.0,86,0.00,,FEW,0.00,0.00,VWS V14.01,2013-04-15 00:23:00,
2013-04-14 20:24:00,80.0,75.4,29.89,ESE,112,7.0,7.0,86,0.00,,FEW,0.00,0.00,VWS V14.01,2013-04-15 00:24:00,
2013-04-14 20:25:00,80.0,75.4,29.89,ESE,117,5.0,7.0,86,0.00,,FEW,0.00,0.00,VWS V14.01,2013-04-15 00:25:00,
2013-04-14 20:27:00,79.9,75.3,29.89,SE,128,2.0,8.0,86,0.00,,FEW,0.00,0.00,VWS V14.01,2013-04-15 00:27:00,
2013-04-14 20:28:00,79.9,75.3,29.89,ENE,75,0.0,8.0,86,0.00,,FEW,0.00,0.00,VWS V14.01,2013-04-15 00:28:00,
2013-04-14 20:30:00,79.9,75.7,29.89,East,101,3.0,8.0,87,0.00,,FEW,0.00,0.00,VWS V14.01,2013-04-15 00:30:00,
2013-04-14 20:33:00,79.9,75.7,29.88,SSE,155,2.0,4.0,87,0.00,,FEW,0.00,0.00,VWS V14.01,2013-04-15 00:33:00,
2013-04-14 20:34:00,79.9,75.3,29.88,ESE,117,3.0,9.0,86,0.00,,FEW,0.00,0.00,VWS V14.01,2013-04-15 00:34:00,
2013-04-14 20:35:00,79.8,75.2,29.88,ESE,102,3.0,9.0,86,0.00,,FEW,0.00,0.00,VWS V14.01,2013-04-15 00:35:00,
2013-04-14 20:38:00,79.7,75.2,29.88,ESE,102,3.0,15.0,86,0.00,,FEW,0.00,0.00,VWS V14.01,2013-04-15 00:38:00,
2013-04-14 20:39:00,79.7,75.2,29.88,SE,146,3.0,15.0,86,0.00,,FEW,0.00,0.00,VWS V14.01,2013-04-15 00:39:00,
2013-04-14 20:40:00,79.7,75.5,29.88,East,94,2.0,15.0,87,0.00,,FEW,0.00,0.00,VWS V14.01,2013-04-15 00:40:00,
2013-04-14 20:43:00,79.7,75.5,29.88,ESE,122,1.0,2.0,87,0.00,,FEW,0.00,0.00,VWS V14.01,2013-04-15 00:43:00,
2013-04-14 20:44:00,79.7,75.5,29.88,East,92,1.0,3.0,87,0.00,,FEW,0.00,0.00,VWS V14.01,2013-04-15 00:44:00,
2013-04-14 20:45:00,79.7,75.5,29.88,East,88,2.0,3.0,87,0.00,,FEW,0.00,0.00,VWS V14.01,2013-04-15 00:45:00,
2013-04-14 20:46:00,79.7,75.5,29.88,SSE,157,1.0,4.0,87,0.00,,FEW,0.00,0.00,VWS V14.01,2013-04-15 00:46:00,
2013-04-14 20:48:00,79.8,75.6,29.89,East,98,5.0,9.0,87,0.00,,FEW,0.00,0.00,VWS V14.01,2013-04-15 00:48:00,
2013-04-14 20:49:00,79.8,75.6,29.89,East,86,1.0,9.0,87,0.00,,FEW,0.00,0.00,VWS V14.01,2013-04-15 00:49:00,
2013-04-14 20:50:00,79.7,75.5,29.89,SE,143,2.0,9.0,87,0.00,,FEW,0.00,0.00,VWS V14.01,2013-04-15 00:50:00,
2013-04-14 20:51:00,79.7,75.5,29.89,ESE,119,3.0,9.0,87,0.00,,FEW,0.00,0.00,VWS V14.01,2013-04-15 00:51:00,
2013-04-14 20:53:00,79.7,75.5,29.89,East,88,1.0,10.0,87,0.00,,FEW,0.00,0.00,VWS V14.01,2013-04-15 00:53:00,
2013-04-14 20:54:00,79.7,75.5,29.89,ESE,116,1.0,10.0,87,0.00,,FEW,0.00,0.00,VWS V14.01,2013-04-15 00:54:00,
2013-04-14 20:55:00,79.7,75.5,29.89,ENE,75,2.0,10.0,87,0.00,,FEW,0.00,0.00,VWS V14.01,2013-04-15 00:55:00,
2013-04-14 20:57:00,79.7,75.5,29.89,SE,142,4.0,10.0,87,0.00,,FEW,0.00,0.00,VWS V14.01,2013-04-15 00:57:00,
2013-04-14 20:58:00,79.6,75.4,29.89,SE,127,4.0,10.0,87,0.00,,FEW,0.00,0.00,VWS V14.01,2013-04-15 00:58:00,
2013-04-14 21:00:00,79.6,75.4,29.89,ESE,103,5.0,10.0,87,0.00,,FEW,0.00,0.00,VWS V14.01,2013-04-15 01:00:00,
2013-04-14 21:02:00,79.7,75.5,29.90,East,85,2.0,10.0,87,0.00,,FEW,0.00,0.00,VWS V14.01,2013-04-15 01:02:00,
2013-04-14 21:03:00,79.7,75.5,29.90,ESE,122,1.0,7.0,87,0.00,,FEW,0.00,0.00,VWS V14.01,2013-04-15 01:03:00,
2013-04-14 21:05:00,79.7,75.5,29.90,ESE,106,7.0,7.0,87,0.00,,FEW,0.00,0.00,VWS V14.01,2013-04-15 01:05:00,
2013-04-14 21:07:00,79.7,75.5,29.90,ESE,111,0.0,10.0,87,0.00,,FEW,0.00,0.00,VWS V14.01,2013-04-15 01:07:00,
2013-04-14 21:08:00,79.7,75.8,29.90,SE,146,8.0,10.0,88,0.00,,FEW,0.00,0.00,VWS V14.01,2013-04-15 01:08:00,
2013-04-14 21:10:00,79.7,75.8,29.90,East,92,5.0,10.0,88,0.00,,FEW,0.00,0.00,VWS V14.01,2013-04-15 01:10:00,
2013-04-14 21:11:00,79.7,75.8,29.90,East,96,2.0,10.0,88,0.00,,FEW,0.00,0.00,VWS V14.01,2013-04-15 01:11:00,
2013-04-14 21:12:00,79.6,75.7,29.90,ESE,109,2.0,10.0,88,0.00,,FEW,0.00,0.00,VWS V14.01,2013-04-15 01:12:00,
2013-04-14 21:13:00,79.6,75.7,29.90,SE,142,4.0,7.0,88,0.00,,FEW,0.00,0.00,VWS V14.01,2013-04-15 01:13:00,
2013-04-14 21:15:00,79.7,75.8,29.90,SSE,148,4.0,8.0,88,0.00,,FEW,0.00,0.00,VWS V14.01,2013-04-15 01:15:00,
2013-04-14 21:16:00,79.6,75.7,29.90,SE,126,2.0,8.0,88,0.00,,FEW,0.00,0.00,VWS V14.01,2013-04-15 01:16:00,
2013-04-14 21:17:00,79.6,75.7,29.91,SSE,150,4.0,8.0,88,0.00,,FEW,0.00,0.00,VWS V14.01,2013-04-15 01:17:00,
2013-04-14 21:19:00,79.6,75.7,29.91,ESE,111,2.0,8.0,88,0.00,,FEW,0.00,0.00,VWS V14.01,2013-04-15 01:19:00,
2013-04-14 21:20:00,79.6,75.7,29.91,ESE,121,3.0,8.0,88,0.00,,FEW,0.00,0.00,VWS V14.01,2013-04-15 01:20:00,
2013-04-14 21:21:00,79.6,75.7,29.91,SE,128,5.0,8.0,88,0.00,,FEW,0.00,0.00,VWS V14.01,2013-04-15 01:21:00,
2013-04-14 21:22:00,79.6,75.7,29.91,ESE,121,2.0,12.0,88,0.00,,FEW,0.00,0.00,VWS V14.01,2013-04-15 01:22:00,
2013-04-14 21:24:00,79.6,75.7,29.91,East,86,3.0,7.0,88,0.00,,FEW,0.00,0.00,VWS V14.01,2013-04-15 01:24:00,
2013-04-14 21:25:00,79.6,75.7,29.91,SSE,160,5.0,10.0,88,0.00,,FEW,0.00,0.00,VWS V14.01,2013-04-15 01:25:00,
2013-04-14 21:26:00,79.5,75.6,29.91,ESE,113,5.0,10.0,88,0.00,,FEW,0.00,0.00,VWS V14.01,2013-04-15 01:26:00,
2013-04-14 21:28:00,79.6,75.7,29.91,ESE,111,4.0,10.0,88,0.00,,FEW,0.00,0.00,VWS V14.01,2013-04-15 01:28:00,
2013-04-14 21:29:00,79.6,75.7,29.91,SE,126,2.0,10.0,88,0.00,,FEW,0.00,0.00,VWS V14.01,2013-04-15 01:29:00,
2013-04-14 21:31:00,79.6,75.7,29.91,SE,130,6.0,10.0,88,0.00,,FEW,0.00,0.00,VWS V14.01,2013-04-15 01:31:00,
2013-04-14 21:33:00,79.6,75.7,29.91,ESE,119,1.0,5.0,88,0.00,,FEW,0.00,0.00,VWS V14.01,2013-04-15 01:33:00,
2013-04-14 21:34:00,79.5,75.6,29.91,ENE,66,3.0,7.0,88,0.00,,FEW,0.00,0.00,VWS V14.01,2013-04-15 01:34:00,
2013-04-14 21:36:00,79.5,75.6,29.91,SE,125,5.0,8.0,88,0.00,,FEW,0.00,0.00,VWS V14.01,2013-04-15 01:36:00,
2013-04-14 21:37:00,79.5,75.6,29.91,SE,144,5.0,8.0,88,0.00,,FEW,0.00,0.00,VWS V14.01,2013-04-15 01:37:00,
2013-04-14 21:38:00,79.5,75.6,29.91,SE,143,7.0,10.0,88,0.00,,FEW,0.00,0.00,VWS V14.01,2013-04-15 01:38:00,
2013-04-14 21:39:00,79.5,75.6,29.91,East,81,3.0,10.0,88,0.00,,FEW,0.00,0.00,VWS V14.01,2013-04-15 01:39:00,
2013-04-14 21:41:00,79.5,75.6,29.91,SE,128,4.0,10.0,88,0.00,,FEW,0.00,0.00,VWS V14.01,2013-04-15 01:41:00,
2013-04-14 21:42:00,79.6,75.7,29.91,SE,132,3.0,10.0,88,0.00,,FEW,0.00,0.00,VWS V14.01,2013-04-15 01:42:00,
2013-04-14 21:43:00,79.5,75.6,29.91,ESE,104,5.0,7.0,88,0.00,,FEW,0.00,0.00,VWS V14.01,2013-04-15 01:43:00,
2013-04-14 21:44:00,79.5,75.6,29.91,SE,129,3.0,7.0,88,0.00,,FEW,0.00,0.00,VWS V14.01,2013-04-15 01:44:00,
2013-04-14 21:47:00,79.5,75.6,29.93,ESE,109,2.0,7.0,88,0.00,,FEW,0.00,0.00,VWS V14.01,2013-04-15 01:47:00,
2013-04-14 21:48:00,79.6,75.7,29.93,SE,144,2.0,8.0,88,0.00,,FEW,0.00,0.00,VWS V14.01,2013-04-15 01:48:00,
2013-04-14 21:49:00,79.6,75.7,29.93,East,94,6.0,9.0,88,0.00,,FEW,0.00,0.00,VWS V14.01,2013-04-15 01:49:00,
2013-04-14 21:52:00,79.6,75.7,29.93,East,99,2.0,9.0,88,0.00,,FEW,0.00,0.00,VWS V14.01,2013-04-15 01:52:00,
2013-04-14 21:53:00,79.6,75.7,29.93,ESE,102,2.0,4.0,88,0.00,,FEW,0.00,0.00,VWS V14.01,2013-04-15 01:53:00,
2013-04-14 21:55:00,79.6,75.7,29.93,ESE,123,5.0,5.0,88,0.00,,FEW,0.00,0.00,VWS V14.01,2013-04-15 01:55:00,
2013-04-14 21:57:00,79.6,76.1,29.93,ESE,111,5.0,8.0,89,0.00,,FEW,0.00,0.00,VWS V14.01,2013-04-15 01:57:00,
2013-04-14 21:58:00,79.6,75.7,29.93,SSE,162,4.0,8.0,88,0.00,,FEW,0.00,0.00,VWS V14.01,2013-04-15 01:58:00,
2013-04-14 22:00:00,79.6,75.7,29.93,SE,128,3.0,10.0,88,0.00,,FEW,0.00,0.00,VWS V14.01,2013-04-15 02:00:00,
2013-04-14 22:02:00,79.6,76.1,29.94,ESE,116,4.0,10.0,89,0.00,,FEW,0.00,0.00,VWS V14.01,2013-04-15 02:02:00,
2013-04-14 22:03:00,79.6,76.1,29.94,SE,144,4.0,9.0,89,0.00,,FEW,0.00,0.00,VWS V14.01,2013-04-15 02:03:00,
2013-04-14 22:05:00,79.7,76.2,29.94,SE,142,6.0,9.0,89,0.00,,FEW,0.00,0.00,VWS V14.01,2013-04-15 02:05:00,
2013-04-14 22:07:00,79.7,76.2,29.94,SE,138,6.0,9.0,89,0.00,,FEW,0.00,0.00,VWS V14.01,2013-04-15 02:07:00,
2013-04-14 22:08:00,79.7,76.2,29.94,SE,136,6.0,9.0,89,0.00,,FEW,0.00,0.00,VWS V14.01,2013-04-15 02:08:00,
2013-04-14 22:10:00,79.7,76.2,29.94,SSE,153,7.0,9.0,89,0.00,,FEW,0.00,0.00,VWS V14.01,2013-04-15 02:10:00,
2013-04-14 22:12:00,79.7,76.2,29.94,East,101,6.0,10.0,89,0.00,,FEW,0.00,0.00,VWS V14.01,2013-04-15 02:12:00,
2013-04-14 22:13:00,79.7,76.2,29.94,SE,144,7.0,8.0,89,0.00,,FEW,0.00,0.00,VWS V14.01,2013-04-15 02:13:00,
2013-04-14 22:15:00,79.6,75.7,29.94,SSE,165,4.0,10.0,88,0.00,,FEW,0.00,0.00,VWS V14.01,2013-04-15 02:15:00,
2013-04-14 22:17:00,79.7,75.8,29.94,SE,146,4.0,11.0,88,0.00,,FEW,0.00,0.00,VWS V14.01,2013-04-15 02:17:00,
2013-04-14 22:18:00,79.6,75.7,29.94,SSE,149,8.0,11.0,88,0.00,,FEW,0.00,0.00,VWS V14.01,2013-04-15 02:18:00,
2013-04-14 22:19:00,79.6,75.7,29.94,ESE,122,3.0,11.0,88,0.00,,FEW,0.00,0.00,VWS V14.01,2013-04-15 02:19:00,
2013-04-14 22:20:00,79.7,76.2,29.94,SSE,152,4.0,11.0,89,0.00,,FEW,0.00,0.00,VWS V14.01,2013-04-15 02:20:00,
2013-04-14 22:23:00,79.7,76.2,29.94,SE,133,7.0,10.0,89,0.00,,FEW,0.00,0.00,VWS V14.01,2013-04-15 02:23:00,
2013-04-14 22:24:00,79.7,76.2,29.94,ESE,106,5.0,10.0,89,0.00,,FEW,0.00,0.00,VWS V14.01,2013-04-15 02:24:00,
2013-04-14 22:25:00,79.7,75.8,29.94,SSE,166,8.0,11.0,88,0.00,,FEW,0.00,0.00,VWS V14.01,2013-04-15 02:25:00,
2013-04-14 22:28:00,79.6,75.7,29.94,SE,138,6.0,11.0,88,0.00,,FEW,0.00,0.00,VWS V14.01,2013-04-15 02:28:00,
2013-04-14 22:29:00,79.7,76.2,29.94,SE,141,3.0,11.0,89,0.00,,FEW,0.00,0.00,VWS V14.01,2013-04-15 02:29:00,
2013-04-14 22:30:00,79.7,76.2,29.94,SE,124,4.0,11.0,89,0.00,,FEW,0.00,0.00,VWS V14.01,2013-04-15 02:30:00,
2013-04-14 22:33:00,79.7,75.8,29.94,SE,137,8.0,13.0,88,0.00,,FEW,0.00,0.00,VWS V14.01,2013-04-15 02:33:00,
2013-04-14 22:34:00,79.7,75.8,29.94,SSE,165,7.0,13.0,88,0.00,,FEW,0.00,0.00,VWS V14.01,2013-04-15 02:34:00,
2013-04-14 22:35:00,79.6,75.7,29.94,SE,129,5.0,13.0,88,0.00,,FEW,0.00,0.00,VWS V14.01,2013-04-15 02:35:00,
2013-04-14 22:38:00,79.6,75.7,29.94,SE,136,10.0,13.0,88,0.00,,FEW,0.00,0.00,VWS V14.01,2013-04-15 02:38:00,
2013-04-14 22:39:00,79.6,75.7,29.94,ESE,111,11.0,13.0,88,0.00,,FEW,0.00,0.00,VWS V14.01,2013-04-15 02:39:00,
2013-04-14 22:40:00,79.6,75.7,29.94,ESE,116,9.0,13.0,88,0.00,,FEW,0.00,0.00,VWS V14.01,2013-04-15 02:40:00,
2013-04-14 22:44:00,79.6,75.7,29.94,SE,137,5.0,10.0,88,0.00,,FEW,0.00,0.00,VWS V14.01,2013-04-15 02:44:00,
2013-04-14 22:45:00,79.6,75.7,29.94,SSE,155,10.0,11.0,88,0.00,,FEW,0.00,0.00,VWS V14.01,2013-04-15 02:45:00,
2013-04-14 22:49:00,79.6,75.7,29.94,SSE,155,5.0,11.0,88,0.00,,FEW,0.00,0.00,VWS V14.01,2013-04-15 02:49:00,
2013-04-14 22:50:00,79.7,75.8,29.94,SSE,166,5.0,11.0,88,0.00,,FEW,0.00,0.00,VWS V14.01,2013-04-15 02:50:00,
2013-04-14 22:54:00,79.7,75.8,29.94,SE,128,7.0,11.0,88,0.00,,FEW,0.00,0.00,VWS V14.01,2013-04-15 02:54:00,
2013-04-14 22:56:00,79.7,75.8,29.94,SE,130,5.0,11.0,88,0.00,,FEW,0.00,0.00,VWS V14.01,2013-04-15 02:56:00,
2013-04-14 22:59:00,79.7,75.8,29.94,SE,144,6.0,11.0,88,0.00,,FEW,0.00,0.00,VWS V14.01,2013-04-15 02:59:00,
2013-04-14 23:01:00,79.7,75.8,29.94,SSE,148,6.0,11.0,88,0.00,,FEW,0.00,0.00,VWS V14.01,2013-04-15 03:01:00,
2013-04-14 23:04:00,79.7,75.5,29.94,SE,137,3.0,8.0,87,0.00,,FEW,0.00,0.00,VWS V14.01,2013-04-15 03:04:00,
2013-04-14 23:05:00,79.7,75.5,29.94,SE,128,6.0,8.0,87,0.00,,FEW,0.00,0.00,VWS V14.01,2013-04-15 03:05:00,
2013-04-14 23:06:00,79.7,75.5,29.94,SSE,150,5.0,8.0,87,0.00,,FEW,0.00,0.00,VWS V14.01,2013-04-15 03:06:00,
2013-04-14 23:09:00,79.8,75.6,29.94,SE,134,6.0,10.0,87,0.00,,FEW,0.00,0.00,VWS V14.01,2013-04-15 03:09:00,
2013-04-14 23:10:00,79.7,75.5,29.94,ESE,103,10.0,10.0,87,0.00,,FEW,0.00,0.00,VWS V14.01,2013-04-15 03:10:00,
2013-04-14 23:11:00,79.8,75.6,29.94,SE,136,8.0,10.0,87,0.00,,FEW,0.00,0.00,VWS V14.01,2013-04-15 03:11:00,
2013-04-14 23:14:00,79.8,75.6,29.94,SSE,159,9.0,11.0,87,0.00,,FEW,0.00,0.00,VWS V14.01,2013-04-15 03:14:00,
2013-04-14 23:15:00,79.8,75.6,29.94,ESE,120,7.0,11.0,87,0.00,,FEW,0.00,0.00,VWS V14.01,2013-04-15 03:15:00,
2013-04-14 23:16:00,79.8,75.6,29.94,SE,127,9.0,11.0,87,0.00,,FEW,0.00,0.00,VWS V14.01,2013-04-15 03:16:00,
2013-04-14 23:19:00,79.8,75.6,29.94,SE,140,4.0,11.0,87,0.00,,FEW,0.00,0.00,VWS V14.01,2013-04-15 03:19:00,
2013-04-14 23:20:00,79.8,75.9,29.94,SE,130,8.0,11.0,88,0.00,,FEW,0.00,0.00,VWS V14.01,2013-04-15 03:20:00,
2013-04-14 23:21:00,79.8,75.9,29.94,SSE,148,5.0,11.0,88,0.00,,FEW,0.00,0.00,VWS V14.01,2013-04-15 03:21:00,
2013-04-14 23:24:00,79.9,76.0,29.94,SE,140,7.0,10.0,88,0.00,,FEW,0.00,0.00,VWS V14.01,2013-04-15 03:24:00,
2013-04-14 23:25:00,79.9,76.0,29.94,SE,132,6.0,10.0,88,0.00,,FEW,0.00,0.00,VWS V14.01,2013-04-15 03:25:00,
2013-04-14 23:26:00,79.9,76.0,29.94,SE,127,4.0,10.0,88,0.00,,FEW,0.00,0.00,VWS V14.01,2013-04-15 03:26:00,
2013-04-14 23:29:00,79.9,76.0,29.94,SSE,153,5.0,10.0,88,0.00,,FEW,0.00,0.00,VWS V14.01,2013-04-15 03:29:00,
2013-04-14 23:30:00,79.9,76.0,29.94,SE,138,6.0,10.0,88,0.00,,FEW,0.00,0.00,VWS V14.01,2013-04-15 03:30:00,
2013-04-14 23:31:00,79.9,76.0,29.94,SSE,148,7.0,11.0,88,0.00,,FEW,0.00,0.00,VWS V14.01,2013-04-15 03:31:00,
2013-04-14 23:34:00,79.8,75.9,29.94,SSE,157,7.0,10.0,88,0.00,,FEW,0.00,0.00,VWS V14.01,2013-04-15 03:34:00,
2013-04-14 23:35:00,79.8,75.9,29.94,SSE,162,9.0,10.0,88,0.00,,FEW,0.00,0.00,VWS V14.01,2013-04-15 03:35:00,
2013-04-14 23:36:00,79.8,75.9,29.94,SE,139,5.0,12.0,88,0.00,,FEW,0.00,0.00,VWS V14.01,2013-04-15 03:36:00,
2013-04-14 23:40:00,79.8,75.9,29.94,SE,128,9.0,12.0,88,0.00,,FEW,0.00,0.00,VWS V14.01,2013-04-15 03:40:00,
2013-04-14 23:41:00,79.9,76.0,29.94,SE,134,4.0,12.0,88,0.00,,FEW,0.00,0.00,VWS V14.01,2013-04-15 03:41:00,
2013-04-14 23:45:00,79.9,76.0,29.94,SE,134,9.0,10.0,88,0.00,,FEW,0.00,0.00,VWS V14.01,2013-04-15 03:45:00,
2013-04-14 23:46:00,79.9,76.0,29.94,SE,137,7.0,10.0,88,0.00,,FEW,0.00,0.00,VWS V14.01,2013-04-15 03:46:00,
2013-04-14 23:50:00,79.9,76.0,29.94,SSE,163,5.0,10.0,88,0.00,,FEW,0.00,0.00,VWS V14.01,2013-04-15 03:50:00,
2013-04-14 23:52:00,79.8,75.9,29.94,SSE,155,5.0,12.0,88,0.00,,FEW,0.00,0.00,VWS V14.01,2013-04-15 03:52:00,
2013-04-14 23:55:00,79.8,75.9,29.94,SSE,157,12.0,12.0,88,0.00,,FEW,0.00,0.00,VWS V14.01,2013-04-15 03:55:00,
2013-04-14 23:56:00,79.8,75.9,29.94,SE,128,8.0,12.0,88,0.00,,FEW,0.00,0.00,VWS V14.01,2013-04-15 03:56:00,
2013-04-14 23:57:00,79.8,75.9,29.94,SSE,165,6.0,12.0,88,0.00,,FEW,0.00,0.00,VWS V14.01,2013-04-15 03:57:00,